Wetterdaten: Sonntag, 16.10.2022
Datum Zeit Temp. 2m Temp +5 cm Feuchte A. Luftdruck Regen Wind Richtung Richtung Sonnenschein UV Solar Taupunkt Windchill Windben
16.10.2022 00:00 12,3 C 11,7 C 91 % 1012,9 hPa 0,0 l/m 11,0 km/h (2 Bft) S 190 0 min 0,0 UV-I 0 W/m 10,9 C 9,6 C 17,7 km/h (3 Bft)
16.10.2022 00:03 12,3 C 11,7 C 90 % 1013,1 hPa 0,0 l/m 10,8 km/h (2 Bft) S 176 0 min 0,0 UV-I 0 W/m 10,7 C 9,7 C 17,7 km/h (3 Bft)
16.10.2022 00:06 12,3 C 11,7 C 90 % 1013,1 hPa 0,0 l/m 11,7 km/h (2 Bft) S 182 0 min 0,0 UV-I 0 W/m 10,7 C 9,3 C 22,5 km/h (4 Bft)
16.10.2022 00:09 12,3 C 11,7 C 90 % 1013,1 hPa 0,0 l/m 8,3 km/h (2 Bft) S-SW 197 0 min 0,0 UV-I 0 W/m 10,7 C 11,1 C 14,5 km/h (3 Bft)
16.10.2022 00:12 12,3 C 11,7 C 90 % 1013,0 hPa 0,0 l/m 8,0 km/h (2 Bft) S-SW 198 0 min 0,0 UV-I 0 W/m 10,7 C 11,3 C 12,9 km/h (3 Bft)
16.10.2022 00:15 12,2 C 11,1 C 90 % 1013,0 hPa 0,0 l/m 9,6 km/h (2 Bft) S 183 0 min 0,0 UV-I 0 W/m 10,6 C 10,2 C 19,3 km/h (3 Bft)
16.10.2022 00:18 12,2 C 11,1 C 90 % 1012,9 hPa 0,0 l/m 9,4 km/h (2 Bft) S 184 0 min 0,0 UV-I 0 W/m 10,6 C 10,3 C 14,5 km/h (3 Bft)
16.10.2022 00:21 12,2 C 11,1 C 90 % 1013,1 hPa 0,0 l/m 9,1 km/h (2 Bft) S-SW 200 0 min 0,0 UV-I 0 W/m 10,6 C 10,5 C 19,3 km/h (3 Bft)
16.10.2022 00:24 12,2 C 11,1 C 90 % 1013,3 hPa 0,0 l/m 10,2 km/h (2 Bft) S-SW 195 0 min 0,0 UV-I 0 W/m 10,6 C 9,9 C 14,5 km/h (3 Bft)
16.10.2022 00:27 12,1 C 11,1 C 90 % 1013,3 hPa 0,0 l/m 10,4 km/h (2 Bft) S-SO 152 0 min 0,0 UV-I 0 W/m 10,5 C 9,7 C 19,3 km/h (3 Bft)
16.10.2022 00:30 12,0 C 11,1 C 90 % 1013,3 hPa 0,0 l/m 7,9 km/h (2 Bft) S 175 0 min 0,0 UV-I 0 W/m 10,4 C 11,0 C 14,5 km/h (3 Bft)
16.10.2022 00:33 12,0 C 11,1 C 90 % 1013,2 hPa 0,0 l/m 10,6 km/h (2 Bft) S 181 0 min 0,0 UV-I 0 W/m 10,4 C 9,5 C 16,1 km/h (3 Bft)
16.10.2022 00:36 11,9 C 11,1 C 90 % 1013,2 hPa 0,0 l/m 8,2 km/h (2 Bft) S-SW 194 0 min 0,0 UV-I 0 W/m 10,3 C 10,7 C 16,1 km/h (3 Bft)
16.10.2022 00:39 11,9 C 11,1 C 90 % 1013,2 hPa 0,0 l/m 7,0 km/h (2 Bft) S-SW 192 0 min 0,0 UV-I 0 W/m 10,3 C 11,5 C 12,9 km/h (3 Bft)
16.10.2022 00:42 11,8 C 10,6 C 90 % 1013,4 hPa 0,0 l/m 8,2 km/h (2 Bft) S-SW 200 0 min 0,0 UV-I 0 W/m 10,2 C 10,6 C 12,9 km/h (3 Bft)
16.10.2022 00:45 11,8 C 11,1 C 90 % 1013,4 hPa 0,0 l/m 9,3 km/h (2 Bft) S-SW 202 0 min 0,0 UV-I 0 W/m 10,2 C 10,0 C 16,1 km/h (3 Bft)
16.10.2022 00:48 11,8 C 11,1 C 91 % 1013,4 hPa 0,0 l/m 10,9 km/h (2 Bft) S-SW 198 0 min 0,0 UV-I 0 W/m 10,4 C 9,1 C 17,7 km/h (3 Bft)
16.10.2022 00:51 11,7 C 10,6 C 91 % 1013,5 hPa 0,0 l/m 7,9 km/h (2 Bft) S-SW 209 0 min 0,0 UV-I 0 W/m 10,3 C 10,7 C 14,5 km/h (3 Bft)
16.10.2022 00:54 11,7 C 10,6 C 91 % 1013,3 hPa 0,0 l/m 10,2 km/h (2 Bft) S 184 0 min 0,0 UV-I 0 W/m 10,3 C 9,4 C 14,5 km/h (3 Bft)
16.10.2022 00:57 11,7 C 10,6 C 91 % 1013,2 hPa 0,0 l/m 8,6 km/h (2 Bft) S 171 0 min 0,0 UV-I 0 W/m 10,3 C 10,3 C 16,1 km/h (3 Bft)
16.10.2022 01:00 11,7 C 11,1 C 91 % 1013,4 hPa 0,0 l/m 9,0 km/h (2 Bft) S 177 0 min 0,0 UV-I 0 W/m 10,3 C 10,0 C 17,7 km/h (3 Bft)
16.10.2022 01:03 11,7 C 11,1 C 91 % 1013,5 hPa 0,0 l/m 8,9 km/h (2 Bft) S-SW 196 0 min 0,0 UV-I 0 W/m 10,3 C 10,1 C 12,9 km/h (3 Bft)
16.10.2022 01:06 11,8 C 11,1 C 91 % 1013,5 hPa 0,0 l/m 11,3 km/h (2 Bft) S 181 0 min 0,0 UV-I 0 W/m 10,4 C 8,9 C 17,7 km/h (3 Bft)
16.10.2022 01:09 11,8 C 11,1 C 91 % 1013,4 hPa 0,0 l/m 9,3 km/h (2 Bft) S 180 0 min 0,0 UV-I 0 W/m 10,4 C 10,0 C 16,1 km/h (3 Bft)
16.10.2022 01:12 11,8 C 11,1 C 91 % 1013,5 hPa 0,0 l/m 12,4 km/h (3 Bft) S 175 0 min 0,0 UV-I 0 W/m 10,4 C 8,4 C 19,3 km/h (3 Bft)
16.10.2022 01:15 11,8 C 11,1 C 91 % 1013,5 hPa 0,0 l/m 14,6 km/h (3 Bft) SW 217 0 min 0,0 UV-I 0 W/m 10,4 C 7,5 C 25,7 km/h (4 Bft)
16.10.2022 01:18 11,9 C 11,1 C 91 % 1013,5 hPa 0,0 l/m 14,6 km/h (3 Bft) S-SW 199 0 min 0,0 UV-I 0 W/m 10,5 C 7,6 C 25,7 km/h (4 Bft)
16.10.2022 01:21 11,9 C 11,1 C 91 % 1013,4 hPa 0,0 l/m 12,6 km/h (3 Bft) S-SW 202 0 min 0,0 UV-I 0 W/m 10,5 C 8,4 C 22,5 km/h (4 Bft)
16.10.2022 01:24 11,9 C 11,1 C 91 % 1013,3 hPa 0,0 l/m 12,9 km/h (3 Bft) SW 214 0 min 0,0 UV-I 0 W/m 10,5 C 8,3 C 24,1 km/h (4 Bft)
16.10.2022 01:27 11,8 C 11,1 C 91 % 1013,4 hPa 0,0 l/m 10,2 km/h (2 Bft) S-SW 192 0 min 0,0 UV-I 0 W/m 10,4 C 9,5 C 14,5 km/h (3 Bft)
16.10.2022 01:30 11,8 C 11,1 C 91 % 1013,3 hPa 0,0 l/m 11,9 km/h (2 Bft) S 190 0 min 0,0 UV-I 0 W/m 10,4 C 8,6 C 20,9 km/h (4 Bft)
16.10.2022 01:33 11,8 C 11,1 C 91 % 1013,4 hPa 0,0 l/m 10,8 km/h (2 Bft) S-SW 199 0 min 0,0 UV-I 0 W/m 10,4 C 9,2 C 16,1 km/h (3 Bft)
16.10.2022 01:36 11,8 C 11,1 C 91 % 1013,3 hPa 0,0 l/m 10,9 km/h (2 Bft) S-SW 192 0 min 0,0 UV-I 0 W/m 10,4 C 9,1 C 22,5 km/h (4 Bft)
16.10.2022 01:39 11,8 C 11,1 C 91 % 1013,4 hPa 0,0 l/m 9,2 km/h (2 Bft) SW 215 0 min 0,0 UV-I 0 W/m 10,4 C 10,0 C 14,5 km/h (3 Bft)
16.10.2022 01:42 11,7 C 11,1 C 91 % 1013,4 hPa 0,0 l/m 11,7 km/h (2 Bft) S 182 0 min 0,0 UV-I 0 W/m 10,3 C 8,6 C 17,7 km/h (3 Bft)
16.10.2022 01:45 11,7 C 11,1 C 91 % 1013,5 hPa 0,0 l/m 10,0 km/h (2 Bft) S 183 0 min 0,0 UV-I 0 W/m 10,3 C 9,5 C 17,7 km/h (3 Bft)
16.10.2022 01:48 11,7 C 11,1 C 91 % 1013,5 hPa 0,0 l/m 10,4 km/h (2 Bft) SW 221 0 min 0,0 UV-I 0 W/m 10,3 C 9,3 C 16,1 km/h (3 Bft)
16.10.2022 01:51 11,7 C 10,6 C 90 % 1013,6 hPa 0,0 l/m 9,7 km/h (2 Bft) SW 221 0 min 0,0 UV-I 0 W/m 10,1 C 9,6 C 16,1 km/h (3 Bft)
16.10.2022 01:54 11,6 C 10,6 C 90 % 1013,5 hPa 0,0 l/m 9,5 km/h (2 Bft) S-SW 195 0 min 0,0 UV-I 0 W/m 10,0 C 9,6 C 16,1 km/h (3 Bft)
16.10.2022 01:57 11,6 C 10,6 C 90 % 1013,5 hPa 0,0 l/m 6,7 km/h (2 Bft) S-SW 195 0 min 0,0 UV-I 0 W/m 10,0 C 11,4 C 11,3 km/h (2 Bft)
16.10.2022 02:00 11,6 C 10,6 C 90 % 1013,5 hPa 0,0 l/m 5,3 km/h (1 Bft) S 190 0 min 0,0 UV-I 0 W/m 10,0 C 11,6 C 11,3 km/h (2 Bft)
16.10.2022 02:03 11,4 C 10,6 C 91 % 1013,5 hPa 0,0 l/m 6,7 km/h (2 Bft) SW 215 0 min 0,0 UV-I 0 W/m 10,0 C 11,2 C 11,3 km/h (2 Bft)
16.10.2022 02:06 11,4 C 10,6 C 91 % 1013,5 hPa 0,0 l/m 6,7 km/h (2 Bft) S-SW 196 0 min 0,0 UV-I 0 W/m 10,0 C 11,2 C 9,7 km/h (2 Bft)
16.10.2022 02:09 11,3 C 10,6 C 91 % 1013,7 hPa 0,0 l/m 7,5 km/h (2 Bft) S-SW 202 0 min 0,0 UV-I 0 W/m 9,9 C 10,5 C 11,3 km/h (2 Bft)
16.10.2022 02:12 11,3 C 10,6 C 91 % 1013,6 hPa 0,0 l/m 7,9 km/h (2 Bft) S-SW 200 0 min 0,0 UV-I 0 W/m 9,9 C 10,3 C 11,3 km/h (2 Bft)
16.10.2022 02:15 11,3 C 10,0 C 90 % 1013,5 hPa 0,0 l/m 7,5 km/h (2 Bft) S 178 0 min 0,0 UV-I 0 W/m 9,7 C 10,5 C 12,9 km/h (3 Bft)
16.10.2022 02:18 11,2 C 10,0 C 90 % 1013,5 hPa 0,0 l/m 5,7 km/h (1 Bft) S 191 0 min 0,0 UV-I 0 W/m 9,6 C 11,2 C 9,7 km/h (2 Bft)
16.10.2022 02:21 11,2 C 10,0 C 91 % 1013,5 hPa 0,0 l/m 7,2 km/h (2 Bft) S-SW 205 0 min 0,0 UV-I 0 W/m 9,8 C 10,6 C 11,3 km/h (2 Bft)
16.10.2022 02:24 11,2 C 10,0 C 90 % 1013,4 hPa 0,0 l/m 5,9 km/h (2 Bft) S-SW 200 0 min 0,0 UV-I 0 W/m 9,6 C 11,2 C 12,9 km/h (3 Bft)
16.10.2022 02:27 11,2 C 10,0 C 90 % 1013,4 hPa 0,0 l/m 7,7 km/h (2 Bft) S 170 0 min 0,0 UV-I 0 W/m 9,6 C 10,3 C 11,3 km/h (2 Bft)
16.10.2022 02:30 11,2 C 10,0 C 90 % 1013,3 hPa 0,0 l/m 7,7 km/h (2 Bft) S-SW 202 0 min 0,0 UV-I 0 W/m 9,6 C 10,3 C 14,5 km/h (3 Bft)
16.10.2022 02:33 11,2 C 10,6 C 90 % 1013,4 hPa 0,0 l/m 7,6 km/h (2 Bft) S-SW 209 0 min 0,0 UV-I 0 W/m 9,6 C 10,4 C 14,5 km/h (3 Bft)
16.10.2022 02:36 11,3 C 10,6 C 91 % 1013,4 hPa 0,0 l/m 8,6 km/h (2 Bft) S-SO 164 0 min 0,0 UV-I 0 W/m 9,9 C 9,8 C 14,5 km/h (3 Bft)
16.10.2022 02:39 11,3 C 10,6 C 90 % 1013,5 hPa 0,0 l/m 7,6 km/h (2 Bft) S-SO 168 0 min 0,0 UV-I 0 W/m 9,7 C 10,5 C 14,5 km/h (3 Bft)
16.10.2022 02:42 11,3 C 10,6 C 90 % 1013,5 hPa 0,0 l/m 8,9 km/h (2 Bft) S 178 0 min 0,0 UV-I 0 W/m 9,7 C 9,7 C 17,7 km/h (3 Bft)
16.10.2022 02:45 11,3 C 10,6 C 90 % 1013,4 hPa 0,0 l/m 8,2 km/h (2 Bft) S-SO 165 0 min 0,0 UV-I 0 W/m 9,7 C 10,1 C 14,5 km/h (3 Bft)
16.10.2022 02:48 11,3 C 10,6 C 90 % 1013,4 hPa 0,0 l/m 9,3 km/h (2 Bft) S 180 0 min 0,0 UV-I 0 W/m 9,7 C 9,4 C 16,1 km/h (3 Bft)
16.10.2022 02:51 11,3 C 10,6 C 90 % 1013,4 hPa 0,0 l/m 9,2 km/h (2 Bft) S 189 0 min 0,0 UV-I 0 W/m 9,7 C 9,5 C 14,5 km/h (3 Bft)
16.10.2022 02:54 11,3 C 10,6 C 90 % 1013,3 hPa 0,0 l/m 10,5 km/h (2 Bft) S-SO 164 0 min 0,0 UV-I 0 W/m 9,7 C 8,8 C 17,7 km/h (3 Bft)
16.10.2022 02:57 11,3 C 10,6 C 89 % 1013,4 hPa 0,0 l/m 10,5 km/h (2 Bft) S-SO 163 0 min 0,0 UV-I 0 W/m 9,6 C 8,8 C 16,1 km/h (3 Bft)
16.10.2022 03:00 11,4 C 10,6 C 89 % 1013,4 hPa 0,0 l/m 12,7 km/h (3 Bft) S 176 0 min 0,0 UV-I 0 W/m 9,7 C 7,8 C 24,1 km/h (4 Bft)
16.10.2022 03:03 11,4 C 10,6 C 89 % 1013,3 hPa 0,0 l/m 11,8 km/h (2 Bft) S 169 0 min 0,0 UV-I 0 W/m 9,7 C 8,2 C 17,7 km/h (3 Bft)
16.10.2022 03:06 11,4 C 10,6 C 89 % 1013,6 hPa 0,0 l/m 10,5 km/h (2 Bft) S 171 0 min 0,0 UV-I 0 W/m 9,7 C 8,9 C 17,7 km/h (3 Bft)
16.10.2022 03:09 11,4 C 10,6 C 89 % 1013,5 hPa 0,0 l/m 9,0 km/h (2 Bft) S 175 0 min 0,0 UV-I 0 W/m 9,7 C 9,7 C 16,1 km/h (3 Bft)
16.10.2022 03:12 11,4 C 10,6 C 89 % 1013,5 hPa 0,0 l/m 9,8 km/h (2 Bft) S 181 0 min 0,0 UV-I 0 W/m 9,7 C 9,3 C 16,1 km/h (3 Bft)
16.10.2022 03:15 11,4 C 10,6 C 88 % 1013,6 hPa 0,0 l/m 9,4 km/h (2 Bft) S 173 0 min 0,0 UV-I 0 W/m 9,5 C 9,5 C 17,7 km/h (3 Bft)
16.10.2022 03:18 11,3 C 10,6 C 88 % 1013,6 hPa 0,0 l/m 10,8 km/h (2 Bft) S-SO 156 0 min 0,0 UV-I 0 W/m 9,4 C 8,6 C 16,1 km/h (3 Bft)
16.10.2022 03:21 11,3 C 10,6 C 88 % 1013,7 hPa 0,0 l/m 11,3 km/h (2 Bft) S 170 0 min 0,0 UV-I 0 W/m 9,4 C 8,4 C 19,3 km/h (3 Bft)
16.10.2022 03:24 11,3 C 10,6 C 88 % 1013,8 hPa 0,0 l/m 13,3 km/h (3 Bft) S-SO 166 0 min 0,0 UV-I 0 W/m 9,4 C 7,4 C 22,5 km/h (4 Bft)
16.10.2022 03:27 11,3 C 10,6 C 89 % 1013,6 hPa 0,0 l/m 14,0 km/h (3 Bft) S-SO 162 0 min 0,0 UV-I 0 W/m 9,6 C 7,1 C 22,5 km/h (4 Bft)
16.10.2022 03:30 11,3 C 10,6 C 88 % 1013,7 hPa 0,0 l/m 11,1 km/h (2 Bft) S 177 0 min 0,0 UV-I 0 W/m 9,4 C 8,5 C 22,5 km/h (4 Bft)
16.10.2022 03:33 11,3 C 10,6 C 89 % 1013,7 hPa 0,0 l/m 13,8 km/h (3 Bft) S-SO 163 0 min 0,0 UV-I 0 W/m 9,6 C 7,2 C 24,1 km/h (4 Bft)
16.10.2022 03:36 11,4 C 10,6 C 89 % 1013,9 hPa 0,0 l/m 10,5 km/h (2 Bft) S-SO 165 0 min 0,0 UV-I 0 W/m 9,7 C 8,9 C 17,7 km/h (3 Bft)
16.10.2022 03:39 11,4 C 10,6 C 89 % 1013,8 hPa 0,0 l/m 11,5 km/h (2 Bft) S 175 0 min 0,0 UV-I 0 W/m 9,7 C 8,4 C 19,3 km/h (3 Bft)
16.10.2022 03:42 11,3 C 10,6 C 89 % 1013,7 hPa 0,0 l/m 11,5 km/h (2 Bft) S 174 0 min 0,0 UV-I 0 W/m 9,6 C 8,3 C 24,1 km/h (4 Bft)
16.10.2022 03:45 11,4 C 10,6 C 89 % 1013,7 hPa 0,0 l/m 11,7 km/h (2 Bft) S 184 0 min 0,0 UV-I 0 W/m 9,7 C 8,3 C 29,0 km/h (5 Bft)
16.10.2022 03:48 11,4 C 10,6 C 89 % 1013,7 hPa 0,0 l/m 10,2 km/h (2 Bft) S 182 0 min 0,0 UV-I 0 W/m 9,7 C 9,0 C 19,3 km/h (3 Bft)
16.10.2022 03:51 11,4 C 10,6 C 89 % 1013,7 hPa 0,0 l/m 11,9 km/h (2 Bft) S 186 0 min 0,0 UV-I 0 W/m 9,7 C 8,2 C 19,3 km/h (3 Bft)
16.10.2022 03:54 11,4 C 10,6 C 89 % 1013,7 hPa 0,0 l/m 11,8 km/h (2 Bft) S 176 0 min 0,0 UV-I 0 W/m 9,7 C 8,2 C 19,3 km/h (3 Bft)
16.10.2022 03:57 11,5 C 10,6 C 89 % 1013,6 hPa 0,0 l/m 11,4 km/h (2 Bft) S 180 0 min 0,0 UV-I 0 W/m 9,8 C 8,5 C 20,9 km/h (4 Bft)
16.10.2022 04:00 11,4 C 10,6 C 89 % 1013,6 hPa 0,0 l/m 8,5 km/h (2 Bft) S 180 0 min 0,0 UV-I 0 W/m 9,7 C 10,0 C 17,7 km/h (3 Bft)
16.10.2022 04:03 11,4 C 10,6 C 90 % 1013,7 hPa 0,0 l/m 11,7 km/h (2 Bft) S-SW 203 0 min 0,0 UV-I 0 W/m 9,8 C 8,3 C 19,3 km/h (3 Bft)
16.10.2022 04:06 11,4 C 10,6 C 90 % 1013,6 hPa 0,0 l/m 9,5 km/h (2 Bft) S-SO 158 0 min 0,0 UV-I 0 W/m 9,8 C 9,4 C 17,7 km/h (3 Bft)
16.10.2022 04:09 11,4 C 11,1 C 90 % 1013,5 hPa 0,0 l/m 10,9 km/h (2 Bft) S-SW 212 0 min 0,0 UV-I 0 W/m 9,8 C 8,7 C 20,9 km/h (4 Bft)
16.10.2022 04:12 11,5 C 11,1 C 90 % 1013,5 hPa 0,0 l/m 13,3 km/h (3 Bft) S-SO 157 0 min 0,0 UV-I 0 W/m 9,9 C 7,7 C 20,9 km/h (4 Bft)
16.10.2022 04:15 11,6 C 11,1 C 90 % 1013,6 hPa 0,0 l/m 9,7 km/h (2 Bft) S 180 0 min 0,0 UV-I 0 W/m 10,0 C 9,5 C 16,1 km/h (3 Bft)
16.10.2022 04:18 11,6 C 10,6 C 90 % 1013,6 hPa 0,0 l/m 12,4 km/h (3 Bft) SW 215 0 min 0,0 UV-I 0 W/m 10,0 C 8,2 C 19,3 km/h (3 Bft)
16.10.2022 04:21 11,6 C 11,1 C 90 % 1013,9 hPa 0,0 l/m 14,0 km/h (3 Bft) S-SW 200 0 min 0,0 UV-I 0 W/m 10,0 C 7,5 C 24,1 km/h (4 Bft)
16.10.2022 04:24 11,6 C 11,1 C 91 % 1013,9 hPa 0,0 l/m 12,3 km/h (3 Bft) S 188 0 min 0,0 UV-I 0 W/m 10,2 C 8,2 C 17,7 km/h (3 Bft)
16.10.2022 04:27 11,6 C 11,1 C 91 % 1013,9 hPa 0,0 l/m 10,7 km/h (2 Bft) S 185 0 min 0,0 UV-I 0 W/m 10,2 C 9,0 C 19,3 km/h (3 Bft)
16.10.2022 04:30 11,6 C 11,1 C 91 % 1013,7 hPa 0,0 l/m 7,9 km/h (2 Bft) S-SW 192 0 min 0,0 UV-I 0 W/m 10,2 C 10,6 C 16,1 km/h (3 Bft)
16.10.2022 04:33 11,7 C 11,1 C 91 % 1013,8 hPa 0,0 l/m 10,5 km/h (2 Bft) S-SW 194 0 min 0,0 UV-I 0 W/m 10,3 C 9,2 C 16,1 km/h (3 Bft)
16.10.2022 04:36 11,7 C 11,1 C 91 % 1013,6 hPa 0,0 l/m 8,4 km/h (2 Bft) SW 218 0 min 0,0 UV-I 0 W/m 10,3 C 10,4 C 11,3 km/h (2 Bft)
16.10.2022 04:39 11,7 C 11,1 C 91 % 1013,6 hPa 0,0 l/m 8,0 km/h (2 Bft) S-SW 211 0 min 0,0 UV-I 0 W/m 10,3 C 10,6 C 16,1 km/h (3 Bft)
16.10.2022 04:42 11,7 C 11,1 C 91 % 1013,7 hPa 0,0 l/m 8,5 km/h (2 Bft) S-SW 205 0 min 0,0 UV-I 0 W/m 10,3 C 10,3 C 14,5 km/h (3 Bft)
16.10.2022 04:45 11,7 C 11,1 C 91 % 1013,9 hPa 0,0 l/m 10,0 km/h (2 Bft) S-SW 194 0 min 0,0 UV-I 0 W/m 10,3 C 9,5 C 14,5 km/h (3 Bft)
16.10.2022 04:48 11,7 C 11,1 C 91 % 1013,9 hPa 0,0 l/m 8,6 km/h (2 Bft) S 177 0 min 0,0 UV-I 0 W/m 10,3 C 10,3 C 16,1 km/h (3 Bft)
16.10.2022 04:51 11,7 C 11,1 C 91 % 1013,8 hPa 0,0 l/m 8,4 km/h (2 Bft) S 185 0 min 0,0 UV-I 0 W/m 10,3 C 10,4 C 16,1 km/h (3 Bft)
16.10.2022 04:54 11,7 C 11,1 C 91 % 1013,8 hPa 0,0 l/m 9,5 km/h (2 Bft) S 169 0 min 0,0 UV-I 0 W/m 10,3 C 9,7 C 16,1 km/h (3 Bft)
16.10.2022 04:57 11,8 C 11,1 C 91 % 1013,8 hPa 0,0 l/m 10,4 km/h (2 Bft) S-SW 205 0 min 0,0 UV-I 0 W/m 10,4 C 9,4 C 16,1 km/h (3 Bft)
16.10.2022 05:00 11,8 C 11,1 C 91 % 1013,7 hPa 0,0 l/m 9,6 km/h (2 Bft) S-SO 150 0 min 0,0 UV-I 0 W/m 10,4 C 9,8 C 17,7 km/h (3 Bft)
16.10.2022 05:03 11,8 C 11,1 C 91 % 1013,8 hPa 0,0 l/m 9,4 km/h (2 Bft) S 190 0 min 0,0 UV-I 0 W/m 10,4 C 9,9 C 19,3 km/h (3 Bft)
16.10.2022 05:06 11,8 C 11,1 C 91 % 1013,9 hPa 0,0 l/m 8,9 km/h (2 Bft) S 175 0 min 0,0 UV-I 0 W/m 10,4 C 10,2 C 14,5 km/h (3 Bft)
16.10.2022 05:09 11,8 C 11,1 C 91 % 1014,0 hPa 0,0 l/m 11,2 km/h (2 Bft) S 188 0 min 0,0 UV-I 0 W/m 10,4 C 9,0 C 17,7 km/h (3 Bft)
16.10.2022 05:12 11,8 C 11,1 C 91 % 1014,0 hPa 0,0 l/m 13,9 km/h (3 Bft) S 190 0 min 0,0 UV-I 0 W/m 10,4 C 7,8 C 22,5 km/h (4 Bft)
16.10.2022 05:15 11,9 C 11,7 C 91 % 1013,8 hPa 0,0 l/m 12,8 km/h (3 Bft) SO 127 0 min 0,0 UV-I 0 W/m 10,5 C 8,3 C 25,7 km/h (4 Bft)
16.10.2022 05:18 11,9 C 11,1 C 91 % 1013,7 hPa 0,0 l/m 11,7 km/h (2 Bft) S 169 0 min 0,0 UV-I 0 W/m 10,5 C 8,8 C 19,3 km/h (3 Bft)
16.10.2022 05:21 11,8 C 11,1 C 91 % 1013,9 hPa 0,0 l/m 10,2 km/h (2 Bft) S-SW 192 0 min 0,0 UV-I 0 W/m 10,4 C 9,5 C 20,9 km/h (4 Bft)
16.10.2022 05:24 11,8 C 11,1 C 91 % 1013,9 hPa 0,0 l/m 10,7 km/h (2 Bft) S-SO 166 0 min 0,0 UV-I 0 W/m 10,4 C 9,2 C 16,1 km/h (3 Bft)
16.10.2022 05:27 11,9 C 11,7 C 91 % 1013,8 hPa 0,0 l/m 11,9 km/h (2 Bft) S 188 0 min 0,0 UV-I 0 W/m 10,5 C 8,7 C 19,3 km/h (3 Bft)
16.10.2022 05:30 11,9 C 11,1 C 91 % 1013,7 hPa 0,0 l/m 9,9 km/h (2 Bft) S-SW 194 0 min 0,0 UV-I 0 W/m 10,5 C 9,7 C 16,1 km/h (3 Bft)
16.10.2022 05:33 11,9 C 11,1 C 91 % 1013,9 hPa 0,0 l/m 15,0 km/h (3 Bft) S 178 0 min 0,0 UV-I 0 W/m 10,5 C 7,4 C 25,7 km/h (4 Bft)
16.10.2022 05:36 11,9 C 11,7 C 91 % 1013,9 hPa 0,0 l/m 14,8 km/h (3 Bft) S 191 0 min 0,0 UV-I 0 W/m 10,5 C 7,5 C 24,1 km/h (4 Bft)
16.10.2022 05:39 11,9 C 11,7 C 91 % 1014,1 hPa 0,0 l/m 12,2 km/h (2 Bft) S 182 0 min 0,0 UV-I 0 W/m 10,5 C 8,6 C 24,1 km/h (4 Bft)
16.10.2022 05:42 11,9 C 11,7 C 91 % 1014,1 hPa 0,0 l/m 14,4 km/h (3 Bft) S-SO 159 0 min 0,0 UV-I 0 W/m 10,5 C 7,7 C 22,5 km/h (4 Bft)
16.10.2022 05:45 11,9 C 11,7 C 91 % 1014,0 hPa 0,0 l/m 10,3 km/h (2 Bft) S 177 0 min 0,0 UV-I 0 W/m 10,5 C 9,5 C 19,3 km/h (3 Bft)
16.10.2022 05:48 12,0 C 11,7 C 91 % 1013,9 hPa 0,0 l/m 11,5 km/h (2 Bft) S-SW 198 0 min 0,0 UV-I 0 W/m 10,6 C 9,1 C 17,7 km/h (3 Bft)
16.10.2022 05:51 12,0 C 11,7 C 91 % 1013,8 hPa 0,0 l/m 13,7 km/h (3 Bft) S 182 0 min 0,0 UV-I 0 W/m 10,6 C 8,1 C 24,1 km/h (4 Bft)
16.10.2022 05:54 12,0 C 11,7 C 91 % 1013,8 hPa 0,0 l/m 12,2 km/h (2 Bft) S 173 0 min 0,0 UV-I 0 W/m 10,6 C 8,7 C 22,5 km/h (4 Bft)
16.10.2022 05:57 12,0 C 11,7 C 91 % 1014,0 hPa 0,0 l/m 13,5 km/h (3 Bft) S 187 0 min 0,0 UV-I 0 W/m 10,6 C 8,2 C 22,5 km/h (4 Bft)
16.10.2022 06:00 12,1 C 11,7 C 91 % 1014,0 hPa 0,0 l/m 14,5 km/h (3 Bft) S 191 0 min 0,0 UV-I 0 W/m 10,7 C 7,9 C 27,4 km/h (4 Bft)
16.10.2022 06:03 12,1 C 11,7 C 91 % 1013,8 hPa 0,0 l/m 13,0 km/h (3 Bft) S 175 0 min 0,0 UV-I 0 W/m 10,7 C 8,5 C 19,3 km/h (3 Bft)
16.10.2022 06:06 12,1 C 11,7 C 91 % 1013,8 hPa 0,0 l/m 10,7 km/h (2 Bft) S 183 0 min 0,0 UV-I 0 W/m 10,7 C 9,6 C 16,1 km/h (3 Bft)
16.10.2022 06:09 12,1 C 11,7 C 91 % 1013,9 hPa 0,0 l/m 11,0 km/h (2 Bft) S-SO 153 0 min 0,0 UV-I 0 W/m 10,7 C 9,4 C 20,9 km/h (4 Bft)
16.10.2022 06:12 12,1 C 11,7 C 91 % 1014,0 hPa 0,0 l/m 10,3 km/h (2 Bft) S 191 0 min 0,0 UV-I 0 W/m 10,7 C 9,8 C 16,1 km/h (3 Bft)
16.10.2022 06:15 12,1 C 11,7 C 91 % 1014,2 hPa 0,0 l/m 16,4 km/h (3 Bft) S 178 0 min 0,0 UV-I 0 W/m 10,7 C 7,2 C 25,7 km/h (4 Bft)
16.10.2022 06:18 12,1 C 11,7 C 91 % 1014,1 hPa 0,0 l/m 13,1 km/h (3 Bft) S-SO 167 0 min 0,0 UV-I 0 W/m 10,7 C 8,4 C 24,1 km/h (4 Bft)
16.10.2022 06:21 12,1 C 11,7 C 91 % 1014,2 hPa 0,0 l/m 16,0 km/h (3 Bft) S-SW 202 0 min 0,0 UV-I 0 W/m 10,7 C 7,3 C 27,4 km/h (4 Bft)
16.10.2022 06:24 12,1 C 11,7 C 91 % 1014,0 hPa 0,0 l/m 12,8 km/h (3 Bft) S 182 0 min 0,0 UV-I 0 W/m 10,7 C 8,6 C 25,7 km/h (4 Bft)
16.10.2022 06:27 12,1 C 11,7 C 91 % 1014,2 hPa 0,0 l/m 9,4 km/h (2 Bft) S 174 0 min 0,0 UV-I 0 W/m 10,7 C 10,2 C 16,1 km/h (3 Bft)
16.10.2022 06:30 12,1 C 11,7 C 91 % 1014,2 hPa 0,0 l/m 10,5 km/h (2 Bft) S-SO 166 0 min 0,0 UV-I 0 W/m 10,7 C 9,7 C 17,7 km/h (3 Bft)
16.10.2022 06:33 12,1 C 11,7 C 91 % 1014,3 hPa 0,0 l/m 8,8 km/h (2 Bft) S-SW 208 0 min 0,0 UV-I 0 W/m 10,7 C 10,6 C 14,5 km/h (3 Bft)
16.10.2022 06:36 12,1 C 11,7 C 91 % 1014,4 hPa 0,0 l/m 14,2 km/h (3 Bft) S 186 0 min 0,0 UV-I 0 W/m 10,7 C 8,0 C 20,9 km/h (4 Bft)
16.10.2022 06:39 12,1 C 11,7 C 91 % 1014,4 hPa 0,0 l/m 14,8 km/h (3 Bft) SW 214 0 min 0,0 UV-I 0 W/m 10,7 C 7,8 C 27,4 km/h (4 Bft)
16.10.2022 06:42 12,1 C 11,7 C 91 % 1014,4 hPa 0,0 l/m 13,5 km/h (3 Bft) S-SW 194 0 min 0,0 UV-I 0 W/m 10,7 C 8,3 C 24,1 km/h (4 Bft)
16.10.2022 06:45 12,1 C 11,7 C 91 % 1014,4 hPa 0,0 l/m 13,0 km/h (3 Bft) S 188 0 min 0,0 UV-I 0 W/m 10,7 C 8,5 C 20,9 km/h (4 Bft)
16.10.2022 06:48 12,1 C 11,7 C 91 % 1014,2 hPa 0,0 l/m 11,2 km/h (2 Bft) S 184 0 min 0,0 UV-I 0 W/m 10,7 C 9,3 C 17,7 km/h (3 Bft)
16.10.2022 06:51 12,0 C 11,7 C 91 % 1014,3 hPa 0,0 l/m 8,0 km/h (2 Bft) S 173 0 min 0,0 UV-I 0 W/m 10,6 C 11,0 C 11,3 km/h (2 Bft)
16.10.2022 06:54 12,0 C 11,7 C 91 % 1014,4 hPa 0,0 l/m 12,7 km/h (3 Bft) S 190 0 min 0,0 UV-I 0 W/m 10,6 C 8,5 C 24,1 km/h (4 Bft)
16.10.2022 06:57 12,1 C 11,7 C 91 % 1014,4 hPa 0,0 l/m 13,0 km/h (3 Bft) S 174 0 min 0,0 UV-I 0 W/m 10,7 C 8,5 C 17,7 km/h (3 Bft)
16.10.2022 07:00 12,0 C 11,7 C 91 % 1014,5 hPa 0,0 l/m 11,1 km/h (2 Bft) S 175 0 min 0,0 UV-I 0 W/m 10,6 C 9,2 C 17,7 km/h (3 Bft)
16.10.2022 07:01 12,0 C 11,7 C 91 % 1014,5 hPa 0,0 l/m 9,7 km/h (2 Bft) S 180 0 min 0,0 UV-I 0 W/m 10,6 C 10,0 C 12,9 km/h (3 Bft)
16.10.2022 07:03 12,0 C 11,7 C 91 % 1014,4 hPa 0,0 l/m 7,8 km/h (2 Bft) S-SW 200 0 min 0,0 UV-I 0 W/m 10,6 C 11,1 C 11,3 km/h (2 Bft)
16.10.2022 07:06 12,0 C 11,1 C 91 % 1014,4 hPa 0,0 l/m 9,7 km/h (2 Bft) S-SW 194 0 min 0,0 UV-I 0 W/m 10,6 C 10,0 C 19,3 km/h (3 Bft)
16.10.2022 07:09 12,0 C 11,7 C 91 % 1014,4 hPa 0,0 l/m 11,1 km/h (2 Bft) S-SW 211 0 min 0,0 UV-I 0 W/m 10,6 C 9,2 C 19,3 km/h (3 Bft)
16.10.2022 07:12 12,0 C 11,7 C 91 % 1014,5 hPa 0,0 l/m 10,3 km/h (2 Bft) S 178 0 min 0,0 UV-I 0 W/m 10,6 C 9,6 C 17,7 km/h (3 Bft)
16.10.2022 07:15 12,0 C 11,7 C 91 % 1014,7 hPa 0,0 l/m 11,8 km/h (2 Bft) S 186 0 min 0,0 UV-I 0 W/m 10,6 C 8,9 C 19,3 km/h (3 Bft)
16.10.2022 07:18 12,0 C 11,7 C 91 % 1014,7 hPa 0,0 l/m 13,1 km/h (3 Bft) S-SO 157 0 min 0,0 UV-I 0 W/m 10,6 C 8,3 C 22,5 km/h (4 Bft)
16.10.2022 07:21 12,0 C 11,7 C 91 % 1014,5 hPa 0,0 l/m 13,2 km/h (3 Bft) S 175 0 min 0,0 UV-I 0 W/m 10,6 C 8,3 C 20,9 km/h (4 Bft)
16.10.2022 07:24 12,1 C 11,7 C 91 % 1014,5 hPa 0,0 l/m 12,9 km/h (3 Bft) S 188 0 min 0,0 UV-I 0 W/m 10,7 C 8,5 C 20,9 km/h (4 Bft)
16.10.2022 07:27 12,0 C 11,7 C 91 % 1014,5 hPa 0,0 l/m 13,5 km/h (3 Bft) S 188 0 min 0,0 UV-I 0 W/m 10,6 C 8,2 C 25,7 km/h (4 Bft)
16.10.2022 07:30 12,0 C 11,7 C 91 % 1014,5 hPa 0,0 l/m 13,2 km/h (3 Bft) S 173 0 min 0,0 UV-I 0 W/m 10,6 C 8,3 C 24,1 km/h (4 Bft)
16.10.2022 07:33 12,0 C 11,7 C 91 % 1014,6 hPa 0,0 l/m 12,7 km/h (3 Bft) S-SW 212 0 min 0,0 UV-I 0 W/m 10,6 C 8,5 C 20,9 km/h (4 Bft)
16.10.2022 07:36 12,0 C 11,7 C 91 % 1014,5 hPa 0,0 l/m 13,6 km/h (3 Bft) S-SW 203 0 min 0,0 UV-I 0 W/m 10,6 C 8,1 C 27,4 km/h (4 Bft)
16.10.2022 07:39 11,9 C 11,1 C 91 % 1014,7 hPa 0,0 l/m 12,9 km/h (3 Bft) S 186 0 min 0,0 UV-I 0 W/m 10,5 C 8,3 C 22,5 km/h (4 Bft)
16.10.2022 07:42 11,9 C 11,1 C 91 % 1014,7 hPa 0,0 l/m 15,2 km/h (3 Bft) S 181 0 min 0,0 UV-I 0 W/m 10,5 C 7,4 C 25,7 km/h (4 Bft)
16.10.2022 07:45 11,9 C 11,1 C 91 % 1014,8 hPa 0,0 l/m 15,4 km/h (3 Bft) S-SO 150 0 min 0,0 UV-I 0 W/m 10,5 C 7,3 C 24,1 km/h (4 Bft)
16.10.2022 07:48 11,9 C 11,1 C 91 % 1014,8 hPa 0,0 l/m 13,8 km/h (3 Bft) S-SW 196 0 min 0,0 UV-I 0 W/m 10,5 C 7,9 C 25,7 km/h (4 Bft)
16.10.2022 07:51 11,9 C 11,1 C 91 % 1014,8 hPa 0,0 l/m 13,6 km/h (3 Bft) S-SW 211 0 min 0,0 UV-I 0 W/m 10,5 C 8,0 C 25,7 km/h (4 Bft)
16.10.2022 07:54 11,9 C 11,1 C 91 % 1014,8 hPa 0,0 l/m 12,7 km/h (3 Bft) S-SO 158 0 min 0,0 UV-I 0 W/m 10,5 C 8,4 C 19,3 km/h (3 Bft)
16.10.2022 07:57 11,8 C 11,1 C 91 % 1014,8 hPa 0,0 l/m 11,4 km/h (2 Bft) S-SW 207 0 min 0,0 UV-I 0 W/m 10,4 C 8,9 C 20,9 km/h (4 Bft)
16.10.2022 08:00 11,8 C 11,1 C 91 % 1014,9 hPa 0,0 l/m 12,6 km/h (3 Bft) S-SW 203 0 min 0,0 UV-I 0 W/m 10,4 C 8,3 C 22,5 km/h (4 Bft)
16.10.2022 08:03 11,8 C 11,1 C 91 % 1015,0 hPa 0,0 l/m 13,2 km/h (3 Bft) S-SW 209 0 min 0,0 UV-I 0 W/m 10,4 C 8,1 C 19,3 km/h (3 Bft)
16.10.2022 08:06 11,8 C 11,1 C 91 % 1014,9 hPa 0,0 l/m 13,6 km/h (3 Bft) S-SO 159 0 min 0,0 UV-I 0 W/m 10,4 C 7,9 C 24,1 km/h (4 Bft)
16.10.2022 08:09 11,8 C 11,1 C 92 % 1015,0 hPa 0,0 l/m 15,2 km/h (3 Bft) S-SW 197 0 min 0,0 UV-I 0 W/m 10,5 C 7,2 C 27,4 km/h (4 Bft)
16.10.2022 08:12 11,8 C 11,1 C 91 % 1015,0 hPa 0,0 l/m 10,8 km/h (2 Bft) S-SW 193 0 min 0,0 UV-I 0 W/m 10,4 C 9,2 C 20,9 km/h (4 Bft)
16.10.2022 08:15 11,8 C 11,1 C 92 % 1015,1 hPa 0,0 l/m 12,9 km/h (3 Bft) SW 216 0 min 0,0 UV-I 0 W/m 10,5 C 8,2 C 22,5 km/h (4 Bft)
16.10.2022 08:18 11,9 C 11,1 C 92 % 1015,2 hPa 0,0 l/m 9,7 km/h (2 Bft) S-SW 194 0 min 0,0 UV-I 0 W/m 10,6 C 9,9 C 14,5 km/h (3 Bft)
16.10.2022 08:21 11,8 C 11,1 C 91 % 1015,2 hPa 0,0 l/m 12,4 km/h (3 Bft) S 186 0 min 0,0 UV-I 0 W/m 10,4 C 8,4 C 17,7 km/h (3 Bft)
16.10.2022 08:24 11,8 C 11,1 C 92 % 1015,2 hPa 0,0 l/m 11,1 km/h (2 Bft) S 188 0 min 0,0 UV-I 0 W/m 10,5 C 9,0 C 19,3 km/h (3 Bft)
16.10.2022 08:27 11,8 C 11,1 C 92 % 1015,3 hPa 0,0 l/m 12,5 km/h (3 Bft) S-SW 211 0 min 0,0 UV-I 5 W/m 10,5 C 8,4 C 20,9 km/h (4 Bft)
16.10.2022 08:30 11,8 C 11,1 C 92 % 1015,3 hPa 0,0 l/m 11,4 km/h (2 Bft) S-SO 159 0 min 0,0 UV-I 10 W/m 10,5 C 8,9 C 19,3 km/h (3 Bft)
16.10.2022 08:33 11,8 C 11,1 C 92 % 1015,3 hPa 0,0 l/m 12,3 km/h (3 Bft) S 186 0 min 0,0 UV-I 18 W/m 10,5 C 8,4 C 19,3 km/h (3 Bft)
16.10.2022 08:36 11,8 C 11,7 C 92 % 1015,4 hPa 0,0 l/m 11,0 km/h (2 Bft) S-SW 197 0 min 0,0 UV-I 17 W/m 10,5 C 9,1 C 19,3 km/h (3 Bft)
16.10.2022 08:39 11,8 C 11,7 C 92 % 1015,4 hPa 0,0 l/m 10,7 km/h (2 Bft) S-SW 193 0 min 0,0 UV-I 11 W/m 10,5 C 9,2 C 14,5 km/h (3 Bft)
16.10.2022 08:42 11,9 C 11,7 C 92 % 1015,4 hPa 0,0 l/m 9,5 km/h (2 Bft) S 178 0 min 0,0 UV-I 13 W/m 10,6 C 10,0 C 12,9 km/h (3 Bft)
16.10.2022 08:45 11,9 C 11,7 C 92 % 1015,4 hPa 0,0 l/m 10,2 km/h (2 Bft) S 187 0 min 0,0 UV-I 15 W/m 10,6 C 9,6 C 19,3 km/h (3 Bft)
16.10.2022 08:48 11,9 C 11,7 C 92 % 1015,5 hPa 0,0 l/m 13,0 km/h (3 Bft) S-SW 197 0 min 0,0 UV-I 27 W/m 10,6 C 8,3 C 19,3 km/h (3 Bft)
16.10.2022 08:51 11,9 C 11,7 C 92 % 1015,7 hPa 0,0 l/m 11,3 km/h (2 Bft) S-SW 202 0 min 0,0 UV-I 27 W/m 10,6 C 9,0 C 17,7 km/h (3 Bft)
16.10.2022 08:54 11,9 C 11,7 C 92 % 1015,8 hPa 0,0 l/m 12,4 km/h (3 Bft) S 186 0 min 0,0 UV-I 21 W/m 10,6 C 8,5 C 16,1 km/h (3 Bft)
16.10.2022 08:57 11,9 C 11,7 C 92 % 1015,8 hPa 0,0 l/m 14,5 km/h (3 Bft) S-SW 192 0 min 0,0 UV-I 29 W/m 10,6 C 7,6 C 22,5 km/h (4 Bft)
16.10.2022 09:00 11,9 C 11,7 C 92 % 1015,8 hPa 0,0 l/m 11,3 km/h (2 Bft) S 174 0 min 0,0 UV-I 39 W/m 10,6 C 9,0 C 17,7 km/h (3 Bft)
16.10.2022 09:03 11,9 C 11,7 C 92 % 1015,8 hPa 0,0 l/m 11,4 km/h (2 Bft) S-SO 161 0 min 0,0 UV-I 29 W/m 10,6 C 9,0 C 19,3 km/h (3 Bft)
16.10.2022 09:06 11,9 C 11,7 C 92 % 1015,9 hPa 0,0 l/m 15,6 km/h (3 Bft) S 190 0 min 0,0 UV-I 26 W/m 10,6 C 7,2 C 24,1 km/h (4 Bft)
16.10.2022 09:09 12,0 C 11,7 C 91 % 1016,0 hPa 0,0 l/m 11,6 km/h (2 Bft) S 177 0 min 0,0 UV-I 33 W/m 10,6 C 9,0 C 17,7 km/h (3 Bft)
16.10.2022 09:12 12,0 C 11,7 C 91 % 1016,1 hPa 0,0 l/m 10,6 km/h (2 Bft) S-SW 209 0 min 0,0 UV-I 28 W/m 10,6 C 9,5 C 19,3 km/h (3 Bft)
16.10.2022 09:15 12,1 C 11,7 C 91 % 1016,1 hPa 0,0 l/m 13,2 km/h (3 Bft) SW 227 0 min 0,0 UV-I 38 W/m 10,7 C 8,4 C 20,9 km/h (4 Bft)
16.10.2022 09:18 12,1 C 11,7 C 91 % 1016,1 hPa 0,0 l/m 12,1 km/h (2 Bft) S-SW 200 0 min 0,0 UV-I 52 W/m 10,7 C 8,9 C 19,3 km/h (3 Bft)
16.10.2022 09:21 12,1 C 12,2 C 91 % 1016,2 hPa 0,0 l/m 11,6 km/h (2 Bft) S-SW 197 0 min 0,0 UV-I 46 W/m 10,7 C 9,1 C 19,3 km/h (3 Bft)
16.10.2022 09:24 12,1 C 12,2 C 91 % 1016,3 hPa 0,0 l/m 11,3 km/h (2 Bft) S-SW 192 0 min 0,0 UV-I 51 W/m 10,7 C 9,3 C 17,7 km/h (3 Bft)
16.10.2022 09:27 12,2 C 12,2 C 91 % 1016,2 hPa 0,0 l/m 12,6 km/h (3 Bft) S 190 0 min 0,0 UV-I 77 W/m 10,8 C 8,8 C 19,3 km/h (3 Bft)
16.10.2022 09:30 12,2 C 12,2 C 91 % 1016,2 hPa 0,0 l/m 8,9 km/h (2 Bft) S-SW 192 0 min 0,0 UV-I 103 W/m 10,8 C 10,6 C 14,5 km/h (3 Bft)
16.10.2022 09:33 12,2 C 12,2 C 91 % 1016,3 hPa 0,0 l/m 11,2 km/h (2 Bft) S 191 0 min 0,0 UV-I 73 W/m 10,8 C 9,4 C 17,7 km/h (3 Bft)
16.10.2022 09:36 12,3 C 12,2 C 91 % 1016,3 hPa 0,0 l/m 9,5 km/h (2 Bft) S 184 0 min 0,0 UV-I 65 W/m 10,9 C 10,4 C 14,5 km/h (3 Bft)
16.10.2022 09:39 12,3 C 12,2 C 91 % 1016,4 hPa 0,0 l/m 9,8 km/h (2 Bft) S-SW 194 0 min 0,0 UV-I 68 W/m 10,9 C 10,2 C 16,1 km/h (3 Bft)
16.10.2022 09:42 12,3 C 12,2 C 90 % 1016,4 hPa 0,0 l/m 10,4 km/h (2 Bft) S-SW 205 0 min 0,0 UV-I 46 W/m 10,7 C 9,9 C 19,3 km/h (3 Bft)
16.10.2022 09:45 12,3 C 12,2 C 90 % 1016,5 hPa 0,0 l/m 11,0 km/h (2 Bft) S 191 0 min 0,2 UV-I 61 W/m 10,7 C 9,6 C 20,9 km/h (4 Bft)
16.10.2022 09:48 12,3 C 12,8 C 90 % 1016,6 hPa 0,0 l/m 7,6 km/h (2 Bft) S-SW 208 0 min 0,2 UV-I 95 W/m 10,7 C 11,5 C 16,1 km/h (3 Bft)
16.10.2022 09:51 12,4 C 12,8 C 90 % 1016,7 hPa 0,0 l/m 8,6 km/h (2 Bft) S-SW 205 0 min 0,3 UV-I 105 W/m 10,8 C 11,0 C 19,3 km/h (3 Bft)
16.10.2022 09:54 12,4 C 12,8 C 90 % 1016,6 hPa 0,0 l/m 10,7 km/h (2 Bft) S-SW 192 0 min 0,0 UV-I 70 W/m 10,8 C 9,9 C 22,5 km/h (4 Bft)
16.10.2022 09:57 12,5 C 12,8 C 90 % 1016,8 hPa 0,0 l/m 7,3 km/h (2 Bft) S 190 0 min 0,0 UV-I 49 W/m 10,9 C 11,9 C 14,5 km/h (3 Bft)
16.10.2022 10:00 12,4 C 12,8 C 90 % 1016,8 hPa 0,0 l/m 7,3 km/h (2 Bft) S-SW 192 0 min 0,0 UV-I 35 W/m 10,8 C 11,8 C 11,3 km/h (2 Bft)
16.10.2022 10:03 12,4 C 12,2 C 90 % 1016,8 hPa 0,0 l/m 10,1 km/h (2 Bft) S 181 0 min 0,0 UV-I 48 W/m 10,8 C 10,2 C 20,9 km/h (4 Bft)
16.10.2022 10:06 12,5 C 12,8 C 90 % 1016,9 hPa 0,0 l/m 5,1 km/h (1 Bft) S-SW 202 0 min 0,0 UV-I 63 W/m 10,9 C 12,5 C 11,3 km/h (2 Bft)
16.10.2022 10:09 12,6 C 12,8 C 90 % 1016,9 hPa 0,0 l/m 6,8 km/h (2 Bft) S 178 0 min 0,4 UV-I 81 W/m 11,0 C 12,4 C 16,1 km/h (3 Bft)
16.10.2022 10:12 12,6 C 12,8 C 90 % 1016,9 hPa 0,0 l/m 4,6 km/h (1 Bft) SW 216 0 min 0,5 UV-I 85 W/m 11,0 C 12,6 C 11,3 km/h (2 Bft)
16.10.2022 10:15 12,6 C 12,8 C 90 % 1016,9 hPa 0,0 l/m 7,5 km/h (2 Bft) S-SW 212 0 min 0,4 UV-I 69 W/m 11,0 C 11,9 C 11,3 km/h (2 Bft)
16.10.2022 10:18 12,6 C 12,8 C 90 % 1016,9 hPa 0,0 l/m 10,2 km/h (2 Bft) S-SW 198 0 min 0,6 UV-I 73 W/m 11,0 C 10,4 C 17,7 km/h (3 Bft)
16.10.2022 10:21 12,6 C 12,8 C 90 % 1017,1 hPa 0,0 l/m 8,6 km/h (2 Bft) S 187 0 min 0,7 UV-I 99 W/m 11,0 C 11,2 C 14,5 km/h (3 Bft)
16.10.2022 10:24 12,7 C 13,3 C 90 % 1017,0 hPa 0,0 l/m 9,3 km/h (2 Bft) S 169 0 min 0,7 UV-I 125 W/m 11,1 C 10,9 C 19,3 km/h (3 Bft)
16.10.2022 10:27 12,7 C 13,3 C 90 % 1017,1 hPa 0,0 l/m 9,4 km/h (2 Bft) S-SW 196 0 min 0,7 UV-I 142 W/m 11,1 C 10,9 C 12,9 km/h (3 Bft)
16.10.2022 10:30 12,7 C 13,3 C 90 % 1017,2 hPa 0,0 l/m 10,3 km/h (2 Bft) S-SO 165 0 min 0,6 UV-I 124 W/m 11,1 C 10,4 C 16,1 km/h (3 Bft)
16.10.2022 10:33 12,8 C 13,3 C 90 % 1017,2 hPa 0,0 l/m 9,6 km/h (2 Bft) S-SW 194 0 min 0,6 UV-I 112 W/m 11,2 C 10,9 C 14,5 km/h (3 Bft)
16.10.2022 10:36 12,7 C 13,3 C 90 % 1017,3 hPa 0,0 l/m 10,9 km/h (2 Bft) S-SW 192 0 min 0,5 UV-I 90 W/m 11,1 C 10,1 C 16,1 km/h (3 Bft)
16.10.2022 10:39 12,7 C 12,8 C 89 % 1017,4 hPa 0,0 l/m 11,8 km/h (2 Bft) S-SW 204 0 min 0,1 UV-I 60 W/m 10,9 C 9,7 C 16,1 km/h (3 Bft)
16.10.2022 10:42 12,7 C 12,8 C 90 % 1017,4 hPa 0,0 l/m 9,3 km/h (2 Bft) S-SW 207 0 min 0,5 UV-I 90 W/m 11,1 C 10,9 C 14,5 km/h (3 Bft)
16.10.2022 10:45 12,8 C 13,3 C 90 % 1017,4 hPa 0,0 l/m 10,9 km/h (2 Bft) S-SW 200 0 min 0,7 UV-I 130 W/m 11,2 C 10,2 C 16,1 km/h (3 Bft)
16.10.2022 10:48 12,9 C 13,9 C 89 % 1017,3 hPa 0,0 l/m 10,4 km/h (2 Bft) S 185 0 min 0,8 UV-I 175 W/m 11,1 C 10,6 C 19,3 km/h (3 Bft)
16.10.2022 10:51 13,1 C 13,9 C 89 % 1017,4 hPa 0,0 l/m 9,7 km/h (2 Bft) S-SO 163 0 min 1,0 UV-I 213 W/m 11,3 C 11,2 C 14,5 km/h (3 Bft)
16.10.2022 10:54 13,2 C 14,4 C 89 % 1017,4 hPa 0,0 l/m 6,7 km/h (2 Bft) S 182 0 min 1,0 UV-I 196 W/m 11,4 C 13,0 C 11,3 km/h (2 Bft)
16.10.2022 10:57 13,3 C 15,0 C 89 % 1017,5 hPa 0,0 l/m 8,7 km/h (2 Bft) S 173 0 min 1,1 UV-I 235 W/m 11,5 C 11,9 C 17,7 km/h (3 Bft)
16.10.2022 11:00 13,2 C 13,9 C 88 % 1017,5 hPa 0,0 l/m 10,3 km/h (2 Bft) S-SW 194 0 min 1,0 UV-I 120 W/m 11,3 C 11,0 C 16,1 km/h (3 Bft)
16.10.2022 11:03 13,1 C 13,9 C 88 % 1017,4 hPa 0,0 l/m 7,0 km/h (2 Bft) S-SW 202 0 min 1,0 UV-I 159 W/m 11,2 C 12,7 C 11,3 km/h (2 Bft)
16.10.2022 11:06 13,2 C 15,0 C 88 % 1017,5 hPa 0,0 l/m 8,0 km/h (2 Bft) S 184 0 min 1,1 UV-I 268 W/m 11,3 C 12,2 C 11,3 km/h (2 Bft)
16.10.2022 11:09 13,3 C 15,0 C 88 % 1017,4 hPa 0,0 l/m 8,3 km/h (2 Bft) S-SW 192 0 min 1,1 UV-I 203 W/m 11,4 C 12,1 C 12,9 km/h (3 Bft)
16.10.2022 11:12 13,3 C 15,6 C 88 % 1017,5 hPa 0,0 l/m 9,8 km/h (2 Bft) SW 225 0 min 1,5 UV-I 312 W/m 11,4 C 11,3 C 14,5 km/h (3 Bft)
16.10.2022 11:15 13,5 C 16,7 C 87 % 1017,6 hPa 0,0 l/m 8,1 km/h (2 Bft) S-SW 193 3 min 1,4 UV-I 397 W/m 11,4 C 12,5 C 12,9 km/h (3 Bft)
16.10.2022 11:18 13,6 C 16,1 C 87 % 1017,7 hPa 0,0 l/m 9,3 km/h (2 Bft) S 191 0 min 1,2 UV-I 299 W/m 11,5 C 11,9 C 16,1 km/h (3 Bft)
16.10.2022 11:21 13,6 C 15,6 C 86 % 1017,6 hPa 0,0 l/m 11,4 km/h (2 Bft) S 184 0 min 1,2 UV-I 194 W/m 11,3 C 10,9 C 17,7 km/h (3 Bft)
16.10.2022 11:24 13,4 C 15,6 C 86 % 1017,7 hPa 0,0 l/m 9,1 km/h (2 Bft) S 170 0 min 1,1 UV-I 254 W/m 11,1 C 11,8 C 14,5 km/h (3 Bft)
16.10.2022 11:27 13,6 C 16,7 C 87 % 1017,6 hPa 0,0 l/m 4,9 km/h (1 Bft) SW 218 0 min 1,2 UV-I 191 W/m 11,5 C 13,6 C 9,7 km/h (2 Bft)
16.10.2022 11:30 13,9 C 17,8 C 86 % 1017,5 hPa 0,0 l/m 5,6 km/h (1 Bft) S 185 0 min 1,4 UV-I 176 W/m 11,6 C 13,9 C 11,3 km/h (2 Bft)
16.10.2022 11:33 13,9 C 16,7 C 86 % 1017,5 hPa 0,0 l/m 6,0 km/h (2 Bft) S-SW 198 0 min 1,1 UV-I 171 W/m 11,6 C 13,9 C 11,3 km/h (2 Bft)
16.10.2022 11:36 13,9 C 17,2 C 85 % 1017,6 hPa 0,0 l/m 7,5 km/h (2 Bft) S 173 0 min 1,5 UV-I 241 W/m 11,4 C 13,2 C 12,9 km/h (3 Bft)
16.10.2022 11:39 14,4 C 20,6 C 84 % 1017,6 hPa 0,0 l/m 10,2 km/h (2 Bft) S 177 3 min 2,2 UV-I 623 W/m 11,7 C 12,4 C 16,1 km/h (3 Bft)
16.10.2022 11:42 14,6 C 21,7 C 84 % 1017,6 hPa 0,0 l/m 9,2 km/h (2 Bft) S 175 3 min 2,1 UV-I 465 W/m 11,9 C 13,1 C 16,1 km/h (3 Bft)
16.10.2022 11:45 14,6 C 21,1 C 83 % 1017,5 hPa 0,0 l/m 12,4 km/h (3 Bft) SW 215 3 min 2,2 UV-I 632 W/m 11,7 C 11,7 C 20,9 km/h (4 Bft)
16.10.2022 11:48 14,5 C 21,7 C 83 % 1017,6 hPa 0,0 l/m 9,1 km/h (2 Bft) S-SW 203 3 min 2,2 UV-I 566 W/m 11,6 C 13,0 C 14,5 km/h (3 Bft)
16.10.2022 11:51 14,9 C 23,3 C 83 % 1017,5 hPa 0,0 l/m 7,3 km/h (2 Bft) S-SO 159 3 min 2,4 UV-I 643 W/m 12,0 C 14,4 C 12,9 km/h (3 Bft)
16.10.2022 11:54 15,1 C 21,1 C 81 % 1017,4 hPa 0,0 l/m 8,3 km/h (2 Bft) S-SO 162 3 min 2,0 UV-I 531 W/m 11,9 C 14,0 C 12,9 km/h (3 Bft)
16.10.2022 11:57 14,8 C 21,1 C 81 % 1017,5 hPa 0,0 l/m 11,6 km/h (2 Bft) S-SW 205 3 min 2,3 UV-I 501 W/m 11,6 C 12,2 C 19,3 km/h (3 Bft)
16.10.2022 12:00 14,4 C 18,3 C 80 % 1017,4 hPa 0,0 l/m 11,4 km/h (2 Bft) S 188 0 min 1,6 UV-I 323 W/m 11,0 C 11,8 C 16,1 km/h (3 Bft)
16.10.2022 12:03 14,2 C 17,8 C 82 % 1017,5 hPa 0,0 l/m 9,5 km/h (2 Bft) S 175 0 min 1,6 UV-I 246 W/m 11,2 C 12,5 C 12,9 km/h (3 Bft)
16.10.2022 12:06 14,3 C 20,0 C 82 % 1017,6 hPa 0,0 l/m 7,6 km/h (2 Bft) S 190 3 min 2,1 UV-I 433 W/m 11,3 C 13,6 C 12,9 km/h (3 Bft)
16.10.2022 12:09 14,7 C 22,2 C 82 % 1017,5 hPa 0,0 l/m 5,6 km/h (1 Bft) S 188 3 min 2,2 UV-I 549 W/m 11,7 C 14,7 C 11,3 km/h (2 Bft)
16.10.2022 12:12 14,8 C 21,7 C 82 % 1017,7 hPa 0,0 l/m 6,7 km/h (2 Bft) SW 215 3 min 1,8 UV-I 479 W/m 11,8 C 14,6 C 11,3 km/h (2 Bft)
16.10.2022 12:15 14,6 C 18,3 C 82 % 1017,7 hPa 0,0 l/m 5,4 km/h (1 Bft) S 189 0 min 1,3 UV-I 167 W/m 11,6 C 14,6 C 8,0 km/h (2 Bft)
16.10.2022 12:18 14,4 C 16,7 C 81 % 1017,6 hPa 0,0 l/m 10,8 km/h (2 Bft) S-SW 199 0 min 1,4 UV-I 197 W/m 11,2 C 12,1 C 16,1 km/h (3 Bft)
16.10.2022 12:21 14,3 C 17,2 C 82 % 1017,7 hPa 0,0 l/m 8,4 km/h (2 Bft) S 186 0 min 1,8 UV-I 244 W/m 11,3 C 13,1 C 14,5 km/h (3 Bft)
16.10.2022 12:24 14,6 C 20,6 C 81 % 1017,7 hPa 0,0 l/m 10,2 km/h (2 Bft) S-SW 196 3 min 2,4 UV-I 413 W/m 11,4 C 12,6 C 14,5 km/h (3 Bft)
16.10.2022 12:27 15,1 C 22,2 C 81 % 1017,8 hPa 0,0 l/m 8,5 km/h (2 Bft) S-SW 198 3 min 2,4 UV-I 604 W/m 11,9 C 13,9 C 14,5 km/h (3 Bft)
16.10.2022 12:30 15,0 C 20,6 C 79 % 1017,8 hPa 0,0 l/m 8,4 km/h (2 Bft) S-SO 151 3 min 2,0 UV-I 398 W/m 11,4 C 13,9 C 11,3 km/h (2 Bft)
16.10.2022 12:33 15,1 C 22,2 C 79 % 1017,7 hPa 0,0 l/m 7,2 km/h (2 Bft) SW 219 3 min 2,7 UV-I 554 W/m 11,5 C 14,6 C 12,9 km/h (3 Bft)
16.10.2022 12:36 15,2 C 22,2 C 79 % 1017,6 hPa 0,0 l/m 7,8 km/h (2 Bft) SW 215 3 min 2,6 UV-I 519 W/m 11,6 C 14,4 C 12,9 km/h (3 Bft)
16.10.2022 12:39 15,3 C 22,8 C 79 % 1017,5 hPa 0,0 l/m 9,7 km/h (2 Bft) SO 136 3 min 2,6 UV-I 543 W/m 11,7 C 13,6 C 12,9 km/h (3 Bft)
16.10.2022 12:42 15,3 C 23,3 C 78 % 1017,6 hPa 0,0 l/m 11,9 km/h (2 Bft) S-SW 207 3 min 2,7 UV-I 592 W/m 11,5 C 12,7 C 17,7 km/h (3 Bft)
16.10.2022 12:45 15,5 C 23,3 C 80 % 1017,7 hPa 0,0 l/m 7,2 km/h (2 Bft) S 169 3 min 2,5 UV-I 547 W/m 12,1 C 15,1 C 14,5 km/h (3 Bft)
16.10.2022 12:48 15,3 C 22,2 C 79 % 1017,8 hPa 0,0 l/m 7,8 km/h (2 Bft) S 181 0 min 2,2 UV-I 309 W/m 11,7 C 14,5 C 14,5 km/h (3 Bft)
16.10.2022 12:51 15,4 C 22,2 C 78 % 1017,9 hPa 0,0 l/m 9,3 km/h (2 Bft) S-SO 165 3 min 2,4 UV-I 503 W/m 11,6 C 13,9 C 17,7 km/h (3 Bft)
16.10.2022 12:54 15,2 C 21,1 C 78 % 1017,8 hPa 0,0 l/m 10,6 km/h (2 Bft) S 170 3 min 2,3 UV-I 410 W/m 11,4 C 13,1 C 17,7 km/h (3 Bft)
16.10.2022 12:57 14,8 C 17,8 C 79 % 1017,8 hPa 0,0 l/m 10,2 km/h (2 Bft) S-SW 196 0 min 1,8 UV-I 215 W/m 11,2 C 12,8 C 17,7 km/h (3 Bft)
16.10.2022 13:00 14,7 C 16,7 C 79 % 1017,7 hPa 0,0 l/m 8,0 km/h (2 Bft) S-SW 194 0 min 1,6 UV-I 203 W/m 11,1 C 13,8 C 11,3 km/h (2 Bft)
16.10.2022 13:03 14,8 C 16,1 C 80 % 1017,9 hPa 0,0 l/m 7,9 km/h (2 Bft) S-SW 211 0 min 1,4 UV-I 164 W/m 11,4 C 13,9 C 12,9 km/h (3 Bft)
16.10.2022 13:06 14,7 C 15,6 C 80 % 1017,9 hPa 0,0 l/m 10,5 km/h (2 Bft) S 180 0 min 1,2 UV-I 172 W/m 11,3 C 12,6 C 16,1 km/h (3 Bft)
16.10.2022 13:09 14,7 C 15,6 C 81 % 1017,8 hPa 0,0 l/m 9,8 km/h (2 Bft) SO 146 0 min 1,0 UV-I 151 W/m 11,5 C 12,9 C 14,5 km/h (3 Bft)
16.10.2022 13:12 14,7 C 15,6 C 81 % 1017,9 hPa 0,0 l/m 7,8 km/h (2 Bft) S 181 0 min 0,8 UV-I 135 W/m 11,5 C 13,9 C 12,9 km/h (3 Bft)
16.10.2022 13:15 14,8 C 16,1 C 81 % 1018,0 hPa 0,0 l/m 5,7 km/h (1 Bft) S-SO 163 0 min 1,0 UV-I 167 W/m 11,6 C 14,8 C 9,7 km/h (2 Bft)
16.10.2022 13:18 14,8 C 16,1 C 81 % 1018,0 hPa 0,0 l/m 6,6 km/h (2 Bft) S 180 0 min 1,3 UV-I 213 W/m 11,6 C 14,7 C 14,5 km/h (3 Bft)
16.10.2022 13:21 15,0 C 17,2 C 82 % 1017,9 hPa 0,0 l/m 5,1 km/h (1 Bft) S 184 0 min 1,5 UV-I 245 W/m 12,0 C 15,0 C 9,7 km/h (2 Bft)
16.10.2022 13:24 14,9 C 17,2 C 81 % 1017,9 hPa 0,0 l/m 7,0 km/h (2 Bft) S 181 0 min 1,5 UV-I 271 W/m 11,7 C 14,6 C 16,1 km/h (3 Bft)
16.10.2022 13:27 15,1 C 17,8 C 82 % 1018,0 hPa 0,0 l/m 9,1 km/h (2 Bft) S 173 0 min 1,7 UV-I 306 W/m 12,0 C 13,6 C 14,5 km/h (3 Bft)
16.10.2022 13:30 15,1 C 17,8 C 80 % 1018,0 hPa 0,0 l/m 9,8 km/h (2 Bft) S 179 0 min 1,8 UV-I 298 W/m 11,7 C 13,3 C 16,1 km/h (3 Bft)
16.10.2022 13:33 15,1 C 17,8 C 80 % 1018,2 hPa 0,0 l/m 12,2 km/h (2 Bft) S-SW 194 0 min 1,6 UV-I 277 W/m 11,7 C 12,3 C 19,3 km/h (3 Bft)
16.10.2022 13:36 15,0 C 17,2 C 80 % 1018,2 hPa 0,0 l/m 9,6 km/h (2 Bft) S-SW 194 0 min 1,5 UV-I 245 W/m 11,6 C 13,3 C 16,1 km/h (3 Bft)
16.10.2022 13:39 14,9 C 16,7 C 80 % 1018,1 hPa 0,0 l/m 10,6 km/h (2 Bft) S 180 0 min 1,2 UV-I 185 W/m 11,5 C 12,7 C 16,1 km/h (3 Bft)
16.10.2022 13:42 14,9 C 16,1 C 81 % 1018,0 hPa 0,0 l/m 8,8 km/h (2 Bft) S-SW 205 0 min 1,2 UV-I 179 W/m 11,7 C 13,6 C 14,5 km/h (3 Bft)
16.10.2022 13:45 15,1 C 16,1 C 81 % 1018,0 hPa 0,0 l/m 7,0 km/h (2 Bft) SO 142 0 min 1,2 UV-I 184 W/m 11,9 C 14,8 C 11,3 km/h (2 Bft)
16.10.2022 13:48 15,0 C 16,7 C 81 % 1017,9 hPa 0,0 l/m 8,3 km/h (2 Bft) O-SO 117 0 min 1,5 UV-I 260 W/m 11,8 C 13,9 C 12,9 km/h (3 Bft)
16.10.2022 13:51 15,2 C 17,8 C 82 % 1017,9 hPa 0,0 l/m 6,7 km/h (2 Bft) SO 127 0 min 2,0 UV-I 328 W/m 12,1 C 15,0 C 14,5 km/h (3 Bft)
16.10.2022 13:54 15,2 C 17,8 C 80 % 1017,8 hPa 0,0 l/m 10,6 km/h (2 Bft) S-SO 157 0 min 2,0 UV-I 298 W/m 11,8 C 13,1 C 17,7 km/h (3 Bft)
16.10.2022 13:57 15,2 C 18,3 C 80 % 1017,7 hPa 0,0 l/m 9,5 km/h (2 Bft) S 178 0 min 2,1 UV-I 372 W/m 11,8 C 13,6 C 14,5 km/h (3 Bft)
16.10.2022 14:00 15,1 C 17,8 C 81 % 1017,7 hPa 0,0 l/m 7,8 km/h (2 Bft) SO 145 0 min 1,6 UV-I 236 W/m 11,9 C 14,3 C 11,3 km/h (2 Bft)
16.10.2022 14:03 15,1 C 16,7 C 80 % 1017,7 hPa 0,0 l/m 8,6 km/h (2 Bft) S 181 0 min 1,5 UV-I 218 W/m 11,7 C 13,9 C 12,9 km/h (3 Bft)
16.10.2022 14:06 15,1 C 16,1 C 81 % 1017,8 hPa 0,0 l/m 9,5 km/h (2 Bft) SO 135 0 min 1,2 UV-I 177 W/m 11,9 C 13,5 C 12,9 km/h (3 Bft)
16.10.2022 14:09 15,1 C 16,1 C 81 % 1017,8 hPa 0,0 l/m 5,8 km/h (2 Bft) S 178 0 min 1,0 UV-I 166 W/m 11,9 C 15,1 C 11,3 km/h (2 Bft)
16.10.2022 14:12 15,0 C 16,1 C 81 % 1017,9 hPa 0,0 l/m 5,8 km/h (2 Bft) S-SO 155 0 min 1,0 UV-I 173 W/m 11,8 C 15,0 C 12,9 km/h (3 Bft)
16.10.2022 14:15 15,0 C 16,1 C 82 % 1017,9 hPa 0,0 l/m 7,1 km/h (2 Bft) SW 218 0 min 0,9 UV-I 168 W/m 12,0 C 14,6 C 11,3 km/h (2 Bft)
16.10.2022 14:18 15,1 C 16,1 C 83 % 1017,9 hPa 0,0 l/m 7,2 km/h (2 Bft) S-SO 162 0 min 1,0 UV-I 164 W/m 12,2 C 14,6 C 12,9 km/h (3 Bft)
16.10.2022 14:21 15,2 C 16,1 C 82 % 1017,9 hPa 0,0 l/m 6,9 km/h (2 Bft) S-SO 148 0 min 1,0 UV-I 152 W/m 12,1 C 14,9 C 14,5 km/h (3 Bft)
16.10.2022 14:24 15,2 C 16,1 C 82 % 1017,9 hPa 0,0 l/m 6,2 km/h (2 Bft) SO 136 0 min 1,0 UV-I 180 W/m 12,1 C 15,2 C 11,3 km/h (2 Bft)
16.10.2022 14:27 15,5 C 17,8 C 83 % 1017,9 hPa 0,0 l/m 6,1 km/h (2 Bft) S 175 0 min 1,5 UV-I 285 W/m 12,6 C 15,5 C 14,5 km/h (3 Bft)
16.10.2022 14:30 15,7 C 18,9 C 83 % 1017,8 hPa 0,0 l/m 8,6 km/h (2 Bft) O-SO 120 0 min 1,9 UV-I 373 W/m 12,8 C 14,5 C 16,1 km/h (3 Bft)
16.10.2022 14:33 15,6 C 18,9 C 82 % 1017,8 hPa 0,0 l/m 10,6 km/h (2 Bft) S-SO 167 3 min 2,0 UV-I 415 W/m 12,5 C 13,5 C 17,7 km/h (3 Bft)
16.10.2022 14:36 15,4 C 17,8 C 82 % 1017,7 hPa 0,0 l/m 8,2 km/h (2 Bft) S-SO 159 0 min 1,6 UV-I 212 W/m 12,3 C 14,4 C 14,5 km/h (3 Bft)
16.10.2022 14:39 15,4 C 17,2 C 82 % 1017,8 hPa 0,0 l/m 10,1 km/h (2 Bft) S-SO 162 0 min 1,6 UV-I 224 W/m 12,3 C 13,5 C 17,7 km/h (3 Bft)
16.10.2022 14:42 15,4 C 17,2 C 82 % 1017,8 hPa 0,0 l/m 6,6 km/h (2 Bft) SO 127 0 min 1,4 UV-I 206 W/m 12,3 C 15,3 C 12,9 km/h (3 Bft)
16.10.2022 14:45 15,5 C 17,8 C 82 % 1017,7 hPa 0,0 l/m 5,6 km/h (1 Bft) SO 141 0 min 1,6 UV-I 302 W/m 12,4 C 15,5 C 12,9 km/h (3 Bft)
16.10.2022 14:48 15,4 C 17,2 C 82 % 1017,7 hPa 0,0 l/m 10,1 km/h (2 Bft) S-SO 161 0 min 1,5 UV-I 214 W/m 12,3 C 13,5 C 17,7 km/h (3 Bft)
16.10.2022 14:51 15,3 C 16,7 C 83 % 1017,6 hPa 0,0 l/m 7,2 km/h (2 Bft) S-SO 155 0 min 1,4 UV-I 190 W/m 12,4 C 14,9 C 11,3 km/h (2 Bft)
16.10.2022 14:54 15,4 C 17,2 C 83 % 1017,6 hPa 0,0 l/m 7,8 km/h (2 Bft) S-SO 165 0 min 1,6 UV-I 228 W/m 12,5 C 14,6 C 12,9 km/h (3 Bft)
16.10.2022 14:57 15,5 C 17,2 C 82 % 1017,6 hPa 0,0 l/m 9,8 km/h (2 Bft) S 175 0 min 1,5 UV-I 245 W/m 12,4 C 13,8 C 14,5 km/h (3 Bft)
16.10.2022 15:00 15,7 C 17,8 C 83 % 1017,7 hPa 0,0 l/m 7,4 km/h (2 Bft) S-SO 157 0 min 1,3 UV-I 231 W/m 12,8 C 15,2 C 14,5 km/h (3 Bft)
16.10.2022 15:03 15,8 C 17,8 C 82 % 1017,7 hPa 0,0 l/m 8,5 km/h (2 Bft) S-SW 204 0 min 1,3 UV-I 288 W/m 12,7 C 14,7 C 16,1 km/h (3 Bft)
16.10.2022 15:06 15,8 C 17,8 C 82 % 1017,7 hPa 0,0 l/m 11,0 km/h (2 Bft) S-SW 200 0 min 1,4 UV-I 273 W/m 12,7 C 13,6 C 16,1 km/h (3 Bft)
16.10.2022 15:09 15,7 C 17,8 C 81 % 1017,7 hPa 0,0 l/m 12,7 km/h (3 Bft) S-SO 156 0 min 1,5 UV-I 268 W/m 12,4 C 12,8 C 20,9 km/h (4 Bft)
16.10.2022 15:12 15,7 C 17,2 C 82 % 1017,8 hPa 0,0 l/m 8,2 km/h (2 Bft) S-SO 156 0 min 1,3 UV-I 166 W/m 12,6 C 14,7 C 16,1 km/h (3 Bft)
16.10.2022 15:15 15,7 C 17,2 C 82 % 1017,7 hPa 0,0 l/m 6,4 km/h (2 Bft) S-SO 164 0 min 1,3 UV-I 174 W/m 12,6 C 15,7 C 11,3 km/h (2 Bft)
16.10.2022 15:18 15,6 C 17,2 C 82 % 1017,6 hPa 0,0 l/m 7,3 km/h (2 Bft) O-SO 120 0 min 1,3 UV-I 151 W/m 12,5 C 15,1 C 16,1 km/h (3 Bft)
16.10.2022 15:21 15,6 C 16,7 C 82 % 1017,8 hPa 0,0 l/m 9,9 km/h (2 Bft) S-SO 159 0 min 1,3 UV-I 158 W/m 12,5 C 13,8 C 16,1 km/h (3 Bft)
16.10.2022 15:24 15,4 C 16,1 C 81 % 1017,7 hPa 0,0 l/m 10,9 km/h (2 Bft) SO 129 0 min 1,1 UV-I 106 W/m 12,2 C 13,2 C 16,1 km/h (3 Bft)
16.10.2022 15:27 15,3 C 15,6 C 82 % 1017,7 hPa 0,0 l/m 6,9 km/h (2 Bft) SO 134 0 min 0,9 UV-I 92 W/m 12,2 C 15,0 C 12,9 km/h (3 Bft)
16.10.2022 15:30 15,3 C 15,6 C 82 % 1017,7 hPa 0,0 l/m 8,6 km/h (2 Bft) SO 126 0 min 0,8 UV-I 87 W/m 12,2 C 14,1 C 17,7 km/h (3 Bft)
16.10.2022 15:33 15,3 C 16,1 C 83 % 1017,7 hPa 0,0 l/m 10,1 km/h (2 Bft) S 175 0 min 1,0 UV-I 169 W/m 12,4 C 13,4 C 17,7 km/h (3 Bft)
16.10.2022 15:36 15,3 C 15,6 C 83 % 1017,7 hPa 0,0 l/m 10,6 km/h (2 Bft) S 191 0 min 0,7 UV-I 77 W/m 12,4 C 13,2 C 17,7 km/h (3 Bft)
16.10.2022 15:39 15,3 C 15,6 C 83 % 1017,8 hPa 0,0 l/m 8,1 km/h (2 Bft) S-SO 156 0 min 0,2 UV-I 57 W/m 12,4 C 14,4 C 12,9 km/h (3 Bft)
16.10.2022 15:42 15,3 C 15,6 C 83 % 1017,8 hPa 0,0 l/m 8,8 km/h (2 Bft) S-SO 147 0 min 0,7 UV-I 94 W/m 12,4 C 14,0 C 14,5 km/h (3 Bft)
16.10.2022 15:45 15,3 C 15,6 C 83 % 1017,8 hPa 0,0 l/m 6,4 km/h (2 Bft) S-SO 161 0 min 0,8 UV-I 124 W/m 12,4 C 15,3 C 11,3 km/h (2 Bft)
16.10.2022 15:48 15,4 C 16,1 C 83 % 1017,8 hPa 0,0 l/m 5,6 km/h (1 Bft) S-SW 205 0 min 0,8 UV-I 126 W/m 12,5 C 15,4 C 9,7 km/h (2 Bft)
16.10.2022 15:51 15,4 C 16,1 C 83 % 1017,8 hPa 0,0 l/m 4,4 km/h (1 Bft) SO 137 0 min 0,8 UV-I 111 W/m 12,5 C 15,4 C 8,0 km/h (2 Bft)
16.10.2022 15:54 15,4 C 16,1 C 83 % 1017,9 hPa 0,0 l/m 5,5 km/h (1 Bft) SO 145 0 min 0,7 UV-I 102 W/m 12,5 C 15,4 C 9,7 km/h (2 Bft)
16.10.2022 15:57 15,4 C 15,6 C 83 % 1017,9 hPa 0,0 l/m 9,4 km/h (2 Bft) SO 128 0 min 0,6 UV-I 97 W/m 12,5 C 13,8 C 17,7 km/h (3 Bft)
16.10.2022 16:00 15,2 C 15,6 C 84 % 1017,8 hPa 0,0 l/m 8,2 km/h (2 Bft) SO 127 0 min 0,8 UV-I 125 W/m 12,5 C 14,2 C 14,5 km/h (3 Bft)
16.10.2022 16:03 15,2 C 15,6 C 85 % 1017,8 hPa 0,0 l/m 8,1 km/h (2 Bft) O-SO 111 0 min 0,8 UV-I 117 W/m 12,7 C 14,3 C 16,1 km/h (3 Bft)
16.10.2022 16:06 15,3 C 16,1 C 85 % 1017,8 hPa 0,0 l/m 5,9 km/h (2 Bft) S-SO 163 0 min 0,8 UV-I 126 W/m 12,8 C 15,3 C 11,3 km/h (2 Bft)
16.10.2022 16:09 15,2 C 15,6 C 85 % 1017,8 hPa 0,0 l/m 6,1 km/h (2 Bft) S-SO 151 0 min 0,8 UV-I 123 W/m 12,7 C 15,2 C 11,3 km/h (2 Bft)
16.10.2022 16:12 15,3 C 16,1 C 85 % 1017,9 hPa 0,0 l/m 6,6 km/h (2 Bft) SO 142 0 min 0,8 UV-I 111 W/m 12,8 C 15,2 C 14,5 km/h (3 Bft)
16.10.2022 16:15 15,2 C 15,6 C 85 % 1017,9 hPa 0,0 l/m 8,9 km/h (2 Bft) SO 142 0 min 0,6 UV-I 100 W/m 12,7 C 13,9 C 16,1 km/h (3 Bft)
16.10.2022 16:18 15,2 C 15,6 C 85 % 1017,9 hPa 0,0 l/m 11,7 km/h (2 Bft) SO 136 0 min 0,6 UV-I 103 W/m 12,7 C 12,6 C 16,1 km/h (3 Bft)
16.10.2022 16:21 15,2 C 15,6 C 85 % 1017,8 hPa 0,0 l/m 8,7 km/h (2 Bft) SO 142 0 min 0,6 UV-I 107 W/m 12,7 C 14,0 C 14,5 km/h (3 Bft)
16.10.2022 16:24 15,2 C 15,6 C 86 % 1017,9 hPa 0,0 l/m 6,9 km/h (2 Bft) SO 138 0 min 0,6 UV-I 100 W/m 12,9 C 14,9 C 11,3 km/h (2 Bft)
16.10.2022 16:27 15,2 C 15,6 C 85 % 1017,8 hPa 0,0 l/m 6,3 km/h (2 Bft) SO 136 0 min 0,5 UV-I 82 W/m 12,7 C 15,2 C 11,3 km/h (2 Bft)
16.10.2022 16:30 15,3 C 15,6 C 86 % 1017,8 hPa 0,0 l/m 4,5 km/h (1 Bft) SO 143 0 min 0,5 UV-I 88 W/m 13,0 C 15,3 C 9,7 km/h (2 Bft)
16.10.2022 16:33 15,3 C 15,6 C 85 % 1017,8 hPa 0,0 l/m 5,8 km/h (2 Bft) S-SO 166 0 min 0,5 UV-I 93 W/m 12,8 C 15,3 C 9,7 km/h (2 Bft)
16.10.2022 16:36 15,3 C 15,6 C 85 % 1017,8 hPa 0,0 l/m 5,8 km/h (2 Bft) S-SO 162 0 min 0,3 UV-I 83 W/m 12,8 C 15,3 C 12,9 km/h (3 Bft)
16.10.2022 16:39 15,3 C 15,6 C 85 % 1018,0 hPa 0,0 l/m 5,0 km/h (1 Bft) S-SO 157 0 min 0,0 UV-I 74 W/m 12,8 C 15,3 C 9,7 km/h (2 Bft)
16.10.2022 16:42 15,3 C 15,0 C 85 % 1018,0 hPa 0,0 l/m 5,6 km/h (1 Bft) S-SO 148 0 min 0,0 UV-I 65 W/m 12,8 C 15,3 C 9,7 km/h (2 Bft)
16.10.2022 16:45 15,2 C 15,0 C 86 % 1017,9 hPa 0,0 l/m 4,2 km/h (1 Bft) SO 135 0 min 0,0 UV-I 57 W/m 12,9 C 15,2 C 8,0 km/h (2 Bft)
16.10.2022 16:48 15,2 C 15,0 C 86 % 1018,0 hPa 0,0 l/m 5,6 km/h (1 Bft) O-SO 113 0 min 0,0 UV-I 61 W/m 12,9 C 15,2 C 12,9 km/h (3 Bft)
16.10.2022 16:51 15,1 C 15,0 C 86 % 1017,9 hPa 0,0 l/m 8,5 km/h (2 Bft) SO 126 0 min 0,0 UV-I 60 W/m 12,8 C 13,9 C 12,9 km/h (3 Bft)
16.10.2022 16:54 15,1 C 15,0 C 86 % 1017,9 hPa 0,0 l/m 10,5 km/h (2 Bft) SO 134 0 min 0,0 UV-I 48 W/m 12,8 C 13,0 C 14,5 km/h (3 Bft)
16.10.2022 16:57 15,1 C 15,0 C 86 % 1017,9 hPa 0,0 l/m 6,4 km/h (2 Bft) O-SO 110 0 min 0,0 UV-I 48 W/m 12,8 C 15,1 C 9,7 km/h (2 Bft)
16.10.2022 17:00 15,0 C 15,0 C 87 % 1017,8 hPa 0,0 l/m 6,9 km/h (2 Bft) S-SO 154 0 min 0,0 UV-I 50 W/m 12,9 C 14,7 C 12,9 km/h (3 Bft)
16.10.2022 17:03 14,9 C 15,0 C 87 % 1017,9 hPa 0,0 l/m 8,8 km/h (2 Bft) SO 138 0 min 0,0 UV-I 51 W/m 12,8 C 13,6 C 14,5 km/h (3 Bft)
16.10.2022 17:06 14,9 C 15,0 C 87 % 1017,8 hPa 0,0 l/m 8,1 km/h (2 Bft) SO 126 0 min 0,0 UV-I 52 W/m 12,8 C 13,9 C 14,5 km/h (3 Bft)
16.10.2022 17:09 14,9 C 15,0 C 87 % 1017,9 hPa 0,0 l/m 7,2 km/h (2 Bft) S 178 0 min 0,0 UV-I 54 W/m 12,8 C 14,4 C 11,3 km/h (2 Bft)
16.10.2022 17:12 14,9 C 15,0 C 87 % 1018,0 hPa 0,0 l/m 6,2 km/h (2 Bft) S-SO 165 0 min 0,0 UV-I 44 W/m 12,8 C 14,9 C 11,3 km/h (2 Bft)
16.10.2022 17:15 14,9 C 14,4 C 87 % 1018,0 hPa 0,0 l/m 5,6 km/h (1 Bft) SO 145 0 min 0,0 UV-I 37 W/m 12,8 C 14,9 C 9,7 km/h (2 Bft)
16.10.2022 17:18 14,9 C 14,4 C 87 % 1017,9 hPa 0,0 l/m 7,6 km/h (2 Bft) S-SO 168 0 min 0,0 UV-I 36 W/m 12,8 C 14,2 C 12,9 km/h (3 Bft)
16.10.2022 17:21 14,8 C 14,4 C 88 % 1018,0 hPa 0,0 l/m 6,1 km/h (2 Bft) SO 145 0 min 0,0 UV-I 36 W/m 12,8 C 14,8 C 11,3 km/h (2 Bft)
16.10.2022 17:24 14,8 C 14,4 C 88 % 1018,0 hPa 0,0 l/m 5,6 km/h (1 Bft) SO 130 0 min 0,0 UV-I 28 W/m 12,8 C 14,8 C 11,3 km/h (2 Bft)
16.10.2022 17:27 14,8 C 14,4 C 88 % 1018,2 hPa 0,0 l/m 6,1 km/h (2 Bft) SO 134 0 min 0,0 UV-I 24 W/m 12,8 C 14,8 C 14,5 km/h (3 Bft)
16.10.2022 17:30 14,8 C 14,4 C 88 % 1018,0 hPa 0,0 l/m 6,6 km/h (2 Bft) SO 132 0 min 0,0 UV-I 28 W/m 12,8 C 14,7 C 12,9 km/h (3 Bft)
16.10.2022 17:33 14,8 C 14,4 C 88 % 1018,0 hPa 0,0 l/m 9,9 km/h (2 Bft) SO 130 0 min 0,0 UV-I 25 W/m 12,8 C 12,9 C 17,7 km/h (3 Bft)
16.10.2022 17:36 14,8 C 14,4 C 88 % 1017,8 hPa 0,0 l/m 8,2 km/h (2 Bft) SO 126 0 min 0,0 UV-I 27 W/m 12,8 C 13,8 C 14,5 km/h (3 Bft)
16.10.2022 17:39 14,8 C 14,4 C 88 % 1017,9 hPa 0,0 l/m 6,0 km/h (2 Bft) SO 137 0 min 0,0 UV-I 25 W/m 12,8 C 14,8 C 12,9 km/h (3 Bft)
16.10.2022 17:42 14,7 C 14,4 C 88 % 1017,8 hPa 0,0 l/m 8,3 km/h (2 Bft) SO 136 0 min 0,0 UV-I 23 W/m 12,7 C 13,6 C 16,1 km/h (3 Bft)
16.10.2022 17:45 14,7 C 13,9 C 88 % 1017,7 hPa 0,0 l/m 8,8 km/h (2 Bft) SO 142 0 min 0,0 UV-I 16 W/m 12,7 C 13,4 C 16,1 km/h (3 Bft)
16.10.2022 17:48 14,7 C 13,9 C 88 % 1017,8 hPa 0,0 l/m 6,7 km/h (2 Bft) S 172 0 min 0,0 UV-I 12 W/m 12,7 C 14,5 C 12,9 km/h (3 Bft)
16.10.2022 17:51 14,6 C 13,9 C 88 % 1017,9 hPa 0,0 l/m 6,3 km/h (2 Bft) S-SO 161 0 min 0,0 UV-I 7 W/m 12,6 C 14,6 C 11,3 km/h (2 Bft)
16.10.2022 17:54 14,6 C 13,9 C 89 % 1017,9 hPa 0,0 l/m 6,5 km/h (2 Bft) S-SO 150 0 min 0,0 UV-I 5 W/m 12,8 C 14,6 C 11,3 km/h (2 Bft)
16.10.2022 17:57 14,6 C 13,9 C 89 % 1017,9 hPa 0,0 l/m 5,1 km/h (1 Bft) SO 139 0 min 0,0 UV-I 5 W/m 12,8 C 14,6 C 8,0 km/h (2 Bft)
16.10.2022 18:00 14,6 C 13,9 C 89 % 1018,0 hPa 0,0 l/m 5,4 km/h (1 Bft) S-SO 147 0 min 0,0 UV-I 6 W/m 12,8 C 14,6 C 9,7 km/h (2 Bft)
16.10.2022 18:03 14,6 C 13,9 C 89 % 1017,8 hPa 0,0 l/m 5,1 km/h (1 Bft) SO 138 0 min 0,0 UV-I 5 W/m 12,8 C 14,6 C 9,7 km/h (2 Bft)
16.10.2022 18:06 14,6 C 13,9 C 89 % 1017,9 hPa 0,0 l/m 4,9 km/h (1 Bft) S 178 0 min 0,0 UV-I 8 W/m 12,8 C 14,6 C 9,7 km/h (2 Bft)
16.10.2022 18:09 14,6 C 13,9 C 89 % 1017,9 hPa 0,0 l/m 5,1 km/h (1 Bft) SO 132 0 min 0,0 UV-I 13 W/m 12,8 C 14,6 C 8,0 km/h (2 Bft)
16.10.2022 18:12 14,6 C 13,9 C 89 % 1018,0 hPa 0,0 l/m 5,3 km/h (1 Bft) SO 142 0 min 0,0 UV-I 13 W/m 12,8 C 14,6 C 8,0 km/h (2 Bft)
16.10.2022 18:15 14,6 C 13,9 C 89 % 1017,8 hPa 0,0 l/m 3,6 km/h (1 Bft) SO 142 0 min 0,0 UV-I 10 W/m 12,8 C 14,6 C 6,4 km/h (2 Bft)
16.10.2022 18:18 14,6 C 13,9 C 89 % 1017,9 hPa 0,0 l/m 2,8 km/h (1 Bft) S-SO 150 0 min 0,0 UV-I 8 W/m 12,8 C 14,6 C 4,8 km/h (1 Bft)
16.10.2022 18:21 14,6 C 13,9 C 89 % 1018,0 hPa 0,0 l/m 5,2 km/h (1 Bft) S-SO 155 0 min 0,0 UV-I 7 W/m 12,8 C 14,6 C 11,3 km/h (2 Bft)
16.10.2022 18:24 14,6 C 13,9 C 89 % 1017,9 hPa 0,0 l/m 3,2 km/h (1 Bft) S-SO 165 0 min 0,0 UV-I 3 W/m 12,8 C 14,6 C 8,0 km/h (2 Bft)
16.10.2022 18:27 14,6 C 13,9 C 89 % 1018,0 hPa 0,0 l/m 4,6 km/h (1 Bft) O-SO 106 0 min 0,0 UV-I 0 W/m 12,8 C 14,6 C 8,0 km/h (2 Bft)
16.10.2022 18:30 14,6 C 13,9 C 90 % 1018,2 hPa 0,0 l/m 4,6 km/h (1 Bft) S-SO 158 0 min 0,0 UV-I 0 W/m 13,0 C 14,6 C 8,0 km/h (2 Bft)
16.10.2022 18:33 14,6 C 13,9 C 89 % 1018,1 hPa 0,0 l/m 6,2 km/h (2 Bft) SO 145 0 min 0,0 UV-I 0 W/m 12,8 C 14,6 C 9,7 km/h (2 Bft)
16.10.2022 18:36 14,6 C 13,9 C 90 % 1018,1 hPa 0,0 l/m 6,4 km/h (2 Bft) S-SO 153 0 min 0,0 UV-I 0 W/m 13,0 C 14,6 C 11,3 km/h (2 Bft)
16.10.2022 18:39 14,6 C 13,9 C 90 % 1018,0 hPa 0,0 l/m 3,9 km/h (1 Bft) SO 125 0 min 0,0 UV-I 0 W/m 13,0 C 14,6 C 8,0 km/h (2 Bft)
16.10.2022 18:42 14,5 C 13,9 C 90 % 1018,0 hPa 0,0 l/m 6,1 km/h (2 Bft) SO 137 0 min 0,0 UV-I 0 W/m 12,9 C 14,5 C 11,3 km/h (2 Bft)
16.10.2022 18:45 14,5 C 13,9 C 90 % 1018,1 hPa 0,0 l/m 4,8 km/h (1 Bft) O-SO 119 0 min 0,0 UV-I 0 W/m 12,9 C 14,5 C 11,3 km/h (2 Bft)
16.10.2022 18:48 14,4 C 13,9 C 90 % 1018,1 hPa 0,0 l/m 6,9 km/h (2 Bft) SO 132 0 min 0,0 UV-I 0 W/m 12,8 C 14,1 C 11,3 km/h (2 Bft)
16.10.2022 18:51 14,4 C 13,3 C 90 % 1018,2 hPa 0,0 l/m 4,0 km/h (1 Bft) SO 146 0 min 0,0 UV-I 0 W/m 12,8 C 14,4 C 6,4 km/h (2 Bft)
16.10.2022 18:54 14,4 C 13,9 C 91 % 1018,2 hPa 0,0 l/m 4,8 km/h (1 Bft) S-SO 154 0 min 0,0 UV-I 0 W/m 12,9 C 14,4 C 9,7 km/h (2 Bft)
16.10.2022 18:57 14,4 C 13,9 C 91 % 1018,3 hPa 0,0 l/m 6,3 km/h (2 Bft) S 174 0 min 0,0 UV-I 0 W/m 12,9 C 14,4 C 12,9 km/h (3 Bft)
16.10.2022 19:00 14,5 C 13,9 C 91 % 1018,3 hPa 0,0 l/m 6,0 km/h (2 Bft) S-SO 148 0 min 0,0 UV-I 0 W/m 13,0 C 14,5 C 11,3 km/h (2 Bft)
16.10.2022 19:03 14,6 C 13,9 C 91 % 1018,5 hPa 0,0 l/m 8,9 km/h (2 Bft) SO 139 0 min 0,0 UV-I 0 W/m 13,1 C 13,2 C 16,1 km/h (3 Bft)
16.10.2022 19:06 14,6 C 13,9 C 91 % 1018,3 hPa 0,0 l/m 6,6 km/h (2 Bft) SO 141 0 min 0,0 UV-I 0 W/m 13,1 C 14,5 C 11,3 km/h (2 Bft)
16.10.2022 19:09 14,6 C 13,9 C 91 % 1018,4 hPa 0,0 l/m 2,6 km/h (1 Bft) SO 141 0 min 0,0 UV-I 0 W/m 13,1 C 14,6 C 4,8 km/h (1 Bft)
16.10.2022 19:12 14,6 C 13,9 C 91 % 1018,5 hPa 0,0 l/m 2,8 km/h (1 Bft) O-SO 122 0 min 0,0 UV-I 0 W/m 13,1 C 14,6 C 4,8 km/h (1 Bft)
16.10.2022 19:15 14,6 C 13,9 C 91 % 1018,5 hPa 0,0 l/m 5,4 km/h (1 Bft) SO 132 0 min 0,0 UV-I 0 W/m 13,1 C 14,6 C 11,3 km/h (2 Bft)
16.10.2022 19:18 14,6 C 13,9 C 91 % 1018,5 hPa 0,0 l/m 4,9 km/h (1 Bft) SO 126 0 min 0,0 UV-I 0 W/m 13,1 C 14,6 C 11,3 km/h (2 Bft)
16.10.2022 19:21 14,6 C 13,9 C 91 % 1018,5 hPa 0,0 l/m 8,1 km/h (2 Bft) SO 128 0 min 0,0 UV-I 0 W/m 13,1 C 13,6 C 12,9 km/h (3 Bft)
16.10.2022 19:24 14,6 C 13,9 C 91 % 1018,5 hPa 0,0 l/m 4,6 km/h (1 Bft) O-SO 120 0 min 0,0 UV-I 0 W/m 13,1 C 14,6 C 8,0 km/h (2 Bft)
16.10.2022 19:27 14,6 C 13,9 C 91 % 1018,6 hPa 0,0 l/m 4,8 km/h (1 Bft) SO 126 0 min 0,0 UV-I 0 W/m 13,1 C 14,6 C 8,0 km/h (2 Bft)
16.10.2022 19:30 14,7 C 13,9 C 91 % 1018,5 hPa 0,0 l/m 5,9 km/h (2 Bft) O-SO 116 0 min 0,0 UV-I 0 W/m 13,2 C 14,7 C 12,9 km/h (3 Bft)
16.10.2022 19:33 14,7 C 13,9 C 91 % 1018,6 hPa 0,0 l/m 7,1 km/h (2 Bft) O-SO 115 0 min 0,0 UV-I 0 W/m 13,2 C 14,3 C 11,3 km/h (2 Bft)
16.10.2022 19:36 14,7 C 13,9 C 91 % 1018,6 hPa 0,0 l/m 8,4 km/h (2 Bft) SO 129 0 min 0,0 UV-I 0 W/m 13,2 C 13,6 C 12,9 km/h (3 Bft)
16.10.2022 19:39 14,8 C 13,9 C 91 % 1018,7 hPa 0,0 l/m 7,8 km/h (2 Bft) SO 144 0 min 0,0 UV-I 0 W/m 13,3 C 14,0 C 12,9 km/h (3 Bft)
16.10.2022 19:42 14,8 C 14,4 C 91 % 1018,6 hPa 0,0 l/m 5,6 km/h (1 Bft) O-SO 122 0 min 0,0 UV-I 0 W/m 13,3 C 14,8 C 11,3 km/h (2 Bft)
16.10.2022 19:45 14,8 C 13,9 C 91 % 1018,7 hPa 0,0 l/m 5,0 km/h (1 Bft) SO 128 0 min 0,0 UV-I 0 W/m 13,3 C 14,8 C 8,0 km/h (2 Bft)
16.10.2022 19:48 14,8 C 14,4 C 91 % 1018,6 hPa 0,0 l/m 3,8 km/h (1 Bft) O-SO 111 0 min 0,0 UV-I 0 W/m 13,3 C 14,8 C 9,7 km/h (2 Bft)
16.10.2022 19:51 14,8 C 14,4 C 91 % 1018,6 hPa 0,0 l/m 3,7 km/h (1 Bft) S-SO 158 0 min 0,0 UV-I 0 W/m 13,3 C 14,8 C 8,0 km/h (2 Bft)
16.10.2022 19:54 14,8 C 14,4 C 91 % 1018,8 hPa 0,0 l/m 4,0 km/h (1 Bft) S-SO 161 0 min 0,0 UV-I 0 W/m 13,3 C 14,8 C 6,4 km/h (2 Bft)
16.10.2022 19:57 14,8 C 14,4 C 91 % 1018,6 hPa 0,0 l/m 2,5 km/h (1 Bft) S 171 0 min 0,0 UV-I 0 W/m 13,3 C 14,8 C 6,4 km/h (2 Bft)
16.10.2022 20:00 14,9 C 14,4 C 91 % 1018,6 hPa 0,0 l/m 3,7 km/h (1 Bft) S 173 0 min 0,0 UV-I 0 W/m 13,4 C 14,9 C 11,3 km/h (2 Bft)
16.10.2022 20:03 14,9 C 14,4 C 91 % 1018,8 hPa 0,0 l/m 5,9 km/h (2 Bft) SO 144 0 min 0,0 UV-I 0 W/m 13,4 C 14,9 C 11,3 km/h (2 Bft)
16.10.2022 20:06 14,9 C 14,4 C 91 % 1018,6 hPa 0,0 l/m 6,3 km/h (2 Bft) S-SO 153 0 min 0,0 UV-I 0 W/m 13,4 C 14,9 C 12,9 km/h (3 Bft)
16.10.2022 20:09 15,0 C 14,4 C 91 % 1018,6 hPa 0,0 l/m 3,8 km/h (1 Bft) S-SO 163 0 min 0,0 UV-I 0 W/m 13,5 C 15,0 C 12,9 km/h (3 Bft)
16.10.2022 20:12 15,0 C 14,4 C 91 % 1018,5 hPa 0,0 l/m 6,0 km/h (2 Bft) SO 124 0 min 0,0 UV-I 0 W/m 13,5 C 15,0 C 11,3 km/h (2 Bft)
16.10.2022 20:15 15,0 C 14,4 C 91 % 1018,7 hPa 0,0 l/m 4,1 km/h (1 Bft) S-SW 196 0 min 0,0 UV-I 0 W/m 13,5 C 15,0 C 8,0 km/h (2 Bft)
16.10.2022 20:18 15,0 C 14,4 C 91 % 1018,6 hPa 0,0 l/m 4,8 km/h (1 Bft) S-SO 168 0 min 0,0 UV-I 0 W/m 13,5 C 15,0 C 9,7 km/h (2 Bft)
16.10.2022 20:21 15,0 C 14,4 C 91 % 1018,8 hPa 0,0 l/m 6,3 km/h (2 Bft) S 184 0 min 0,0 UV-I 0 W/m 13,5 C 15,0 C 9,7 km/h (2 Bft)
16.10.2022 20:24 15,0 C 14,4 C 91 % 1018,8 hPa 0,0 l/m 6,1 km/h (2 Bft) SO 140 0 min 0,0 UV-I 0 W/m 13,5 C 15,0 C 11,3 km/h (2 Bft)
16.10.2022 20:27 14,9 C 14,4 C 91 % 1018,8 hPa 0,0 l/m 3,0 km/h (1 Bft) SO 144 0 min 0,0 UV-I 0 W/m 13,4 C 14,9 C 4,8 km/h (1 Bft)
16.10.2022 20:30 14,9 C 14,4 C 91 % 1018,8 hPa 0,0 l/m 4,2 km/h (1 Bft) S 172 0 min 0,0 UV-I 0 W/m 13,4 C 14,9 C 9,7 km/h (2 Bft)
16.10.2022 20:33 14,9 C 14,4 C 91 % 1018,8 hPa 0,0 l/m 4,3 km/h (1 Bft) S-SO 163 0 min 0,0 UV-I 0 W/m 13,4 C 14,9 C 8,0 km/h (2 Bft)
16.10.2022 20:36 14,9 C 14,4 C 91 % 1018,7 hPa 0,0 l/m 2,5 km/h (1 Bft) S 182 0 min 0,0 UV-I 0 W/m 13,4 C 14,9 C 6,4 km/h (2 Bft)
16.10.2022 20:39 14,9 C 14,4 C 91 % 1018,8 hPa 0,0 l/m 0,2 km/h (0 Bft) S 182 0 min 0,0 UV-I 0 W/m 13,4 C 14,9 C 3,2 km/h (1 Bft)
16.10.2022 20:42 14,9 C 14,4 C 91 % 1018,9 hPa 0,0 l/m 2,2 km/h (1 Bft) S-SW 200 0 min 0,0 UV-I 0 W/m 13,4 C 14,9 C 4,8 km/h (1 Bft)
16.10.2022 20:45 14,9 C 14,4 C 91 % 1018,9 hPa 0,0 l/m 0,8 km/h (0 Bft) S-SW 200 0 min 0,0 UV-I 0 W/m 13,4 C 14,9 C 3,2 km/h (1 Bft)
16.10.2022 20:48 14,9 C 14,4 C 91 % 1018,8 hPa 0,0 l/m 0,6 km/h (0 Bft) S-SW 200 0 min 0,0 UV-I 0 W/m 13,4 C 14,9 C 3,2 km/h (1 Bft)
16.10.2022 20:51 14,9 C 14,4 C 92 % 1018,8 hPa 0,0 l/m 3,2 km/h (1 Bft) S-SO 155 0 min 0,0 UV-I 0 W/m 13,6 C 14,9 C 8,0 km/h (2 Bft)
16.10.2022 20:54 15,0 C 14,4 C 92 % 1018,8 hPa 0,0 l/m 8,5 km/h (2 Bft) S-SO 167 0 min 0,0 UV-I 0 W/m 13,7 C 13,8 C 16,1 km/h (3 Bft)
16.10.2022 20:57 15,0 C 14,4 C 91 % 1018,9 hPa 0,0 l/m 9,2 km/h (2 Bft) SO 141 0 min 0,0 UV-I 0 W/m 13,5 C 13,5 C 16,1 km/h (3 Bft)
16.10.2022 21:00 15,1 C 14,4 C 91 % 1018,8 hPa 0,0 l/m 8,4 km/h (2 Bft) SO 143 0 min 0,0 UV-I 0 W/m 13,6 C 14,0 C 16,1 km/h (3 Bft)
16.10.2022 21:03 15,1 C 14,4 C 91 % 1019,0 hPa 0,0 l/m 9,3 km/h (2 Bft) SO 136 0 min 0,0 UV-I 0 W/m 13,6 C 13,6 C 16,1 km/h (3 Bft)
16.10.2022 21:06 15,0 C 14,4 C 91 % 1019,0 hPa 0,0 l/m 10,0 km/h (2 Bft) O-SO 122 0 min 0,0 UV-I 0 W/m 13,5 C 13,1 C 16,1 km/h (3 Bft)
16.10.2022 21:09 15,0 C 14,4 C 91 % 1019,1 hPa 0,0 l/m 9,1 km/h (2 Bft) S-SO 167 0 min 0,0 UV-I 0 W/m 13,5 C 13,5 C 14,5 km/h (3 Bft)
16.10.2022 21:12 15,0 C 14,4 C 91 % 1019,1 hPa 0,0 l/m 6,7 km/h (2 Bft) S 186 0 min 0,0 UV-I 0 W/m 13,5 C 14,8 C 14,5 km/h (3 Bft)
16.10.2022 21:15 15,0 C 14,4 C 91 % 1019,1 hPa 0,0 l/m 5,5 km/h (1 Bft) S-SO 148 0 min 0,0 UV-I 0 W/m 13,5 C 15,0 C 12,9 km/h (3 Bft)
16.10.2022 21:18 15,0 C 14,4 C 91 % 1019,2 hPa 0,0 l/m 4,5 km/h (1 Bft) SO 126 0 min 0,0 UV-I 0 W/m 13,5 C 15,0 C 12,9 km/h (3 Bft)
16.10.2022 21:21 15,0 C 14,4 C 91 % 1019,1 hPa 0,0 l/m 9,0 km/h (2 Bft) SO 135 0 min 0,0 UV-I 0 W/m 13,5 C 13,6 C 16,1 km/h (3 Bft)
16.10.2022 21:24 15,0 C 14,4 C 91 % 1019,1 hPa 0,0 l/m 6,7 km/h (2 Bft) S-SO 165 0 min 0,0 UV-I 0 W/m 13,5 C 14,8 C 12,9 km/h (3 Bft)
16.10.2022 21:27 15,0 C 14,4 C 91 % 1019,1 hPa 0,0 l/m 3,9 km/h (1 Bft) S-SO 159 0 min 0,0 UV-I 0 W/m 13,5 C 15,0 C 8,0 km/h (2 Bft)
16.10.2022 21:30 15,0 C 14,4 C 91 % 1019,0 hPa 0,0 l/m 5,2 km/h (1 Bft) S-SO 162 0 min 0,0 UV-I 0 W/m 13,5 C 15,0 C 12,9 km/h (3 Bft)
16.10.2022 21:33 14,9 C 14,4 C 91 % 1019,2 hPa 0,0 l/m 3,8 km/h (1 Bft) O 91 0 min 0,0 UV-I 0 W/m 13,4 C 14,9 C 8,0 km/h (2 Bft)
16.10.2022 21:36 14,9 C 14,4 C 91 % 1019,2 hPa 0,0 l/m 6,1 km/h (2 Bft) S-SW 206 0 min 0,0 UV-I 0 W/m 13,4 C 14,9 C 14,5 km/h (3 Bft)
16.10.2022 21:39 15,0 C 14,4 C 92 % 1019,2 hPa 0,0 l/m 5,2 km/h (1 Bft) SO 134 0 min 0,0 UV-I 0 W/m 13,7 C 15,0 C 14,5 km/h (3 Bft)
16.10.2022 21:42 15,0 C 14,4 C 91 % 1019,2 hPa 0,0 l/m 6,4 km/h (2 Bft) SO 129 0 min 0,0 UV-I 0 W/m 13,5 C 15,0 C 12,9 km/h (3 Bft)
16.10.2022 21:45 15,0 C 14,4 C 91 % 1019,2 hPa 0,0 l/m 4,6 km/h (1 Bft) SO 124 0 min 0,0 UV-I 0 W/m 13,5 C 15,0 C 11,3 km/h (2 Bft)
16.10.2022 21:48 15,0 C 14,4 C 91 % 1019,2 hPa 0,0 l/m 4,5 km/h (1 Bft) SO 141 0 min 0,0 UV-I 0 W/m 13,5 C 15,0 C 6,4 km/h (2 Bft)
16.10.2022 21:51 15,0 C 13,9 C 91 % 1019,2 hPa 0,0 l/m 4,0 km/h (1 Bft) SO 142 0 min 0,0 UV-I 0 W/m 13,5 C 15,0 C 8,0 km/h (2 Bft)
16.10.2022 21:54 14,9 C 13,9 C 91 % 1019,1 hPa 0,0 l/m 3,3 km/h (1 Bft) SO 141 0 min 0,0 UV-I 0 W/m 13,4 C 14,9 C 11,3 km/h (2 Bft)
16.10.2022 21:57 14,9 C 13,9 C 91 % 1019,2 hPa 0,0 l/m 4,4 km/h (1 Bft) S-SO 157 0 min 0,0 UV-I 0 W/m 13,4 C 14,9 C 9,7 km/h (2 Bft)
16.10.2022 22:00 14,8 C 13,9 C 92 % 1019,3 hPa 0,0 l/m 6,5 km/h (2 Bft) S-SO 160 0 min 0,0 UV-I 0 W/m 13,5 C 14,8 C 16,1 km/h (3 Bft)
16.10.2022 22:03 14,9 C 13,9 C 92 % 1019,1 hPa 0,0 l/m 5,7 km/h (1 Bft) SO 132 0 min 0,0 UV-I 0 W/m 13,6 C 14,9 C 14,5 km/h (3 Bft)
16.10.2022 22:06 14,9 C 13,9 C 92 % 1019,2 hPa 0,0 l/m 9,1 km/h (2 Bft) S-SO 165 0 min 0,0 UV-I 0 W/m 13,6 C 13,4 C 19,3 km/h (3 Bft)
16.10.2022 22:09 14,8 C 13,9 C 92 % 1019,0 hPa 0,0 l/m 5,4 km/h (1 Bft) S-SO 147 0 min 0,0 UV-I 0 W/m 13,5 C 14,8 C 11,3 km/h (2 Bft)
16.10.2022 22:12 14,8 C 13,9 C 92 % 1019,1 hPa 0,0 l/m 6,5 km/h (2 Bft) O-SO 117 0 min 0,0 UV-I 0 W/m 13,5 C 14,8 C 11,3 km/h (2 Bft)
16.10.2022 22:15 14,8 C 13,3 C 92 % 1019,1 hPa 0,0 l/m 3,9 km/h (1 Bft) SO 132 0 min 0,0 UV-I 0 W/m 13,5 C 14,8 C 12,9 km/h (3 Bft)
16.10.2022 22:18 14,8 C 13,3 C 92 % 1019,2 hPa 0,0 l/m 3,9 km/h (1 Bft) S 169 0 min 0,0 UV-I 0 W/m 13,5 C 14,8 C 12,9 km/h (3 Bft)
16.10.2022 22:21 14,8 C 13,3 C 91 % 1019,2 hPa 0,0 l/m 1,5 km/h (1 Bft) S-SO 168 0 min 0,0 UV-I 0 W/m 13,3 C 14,8 C 6,4 km/h (2 Bft)
16.10.2022 22:24 14,8 C 13,3 C 91 % 1019,2 hPa 0,0 l/m 1,3 km/h (1 Bft) S-SW 197 0 min 0,0 UV-I 0 W/m 13,3 C 14,8 C 4,8 km/h (1 Bft)
16.10.2022 22:27 14,7 C 12,8 C 91 % 1019,1 hPa 0,0 l/m 1,9 km/h (1 Bft) W-SW 240 0 min 0,0 UV-I 0 W/m 13,2 C 14,7 C 6,4 km/h (2 Bft)
16.10.2022 22:30 14,8 C 12,8 C 92 % 1019,2 hPa 0,0 l/m 2,9 km/h (1 Bft) S 185 0 min 0,0 UV-I 0 W/m 13,5 C 14,8 C 6,4 km/h (2 Bft)
16.10.2022 22:33 14,8 C 12,8 C 91 % 1019,3 hPa 0,0 l/m 0,8 km/h (0 Bft) S 185 0 min 0,0 UV-I 0 W/m 13,3 C 14,8 C 3,2 km/h (1 Bft)
16.10.2022 22:36 14,6 C 12,8 C 91 % 1019,3 hPa 0,0 l/m 1,0 km/h (0 Bft) S 185 0 min 0,0 UV-I 0 W/m 13,1 C 14,6 C 1,6 km/h (1 Bft)
16.10.2022 22:39 14,5 C 12,2 C 92 % 1019,3 hPa 0,0 l/m 0,4 km/h (0 Bft) S 185 0 min 0,0 UV-I 0 W/m 13,2 C 14,5 C 3,2 km/h (1 Bft)
16.10.2022 22:42 14,3 C 12,2 C 91 % 1019,2 hPa 0,0 l/m 0,9 km/h (0 Bft) S 185 0 min 0,0 UV-I 0 W/m 12,8 C 14,3 C 3,2 km/h (1 Bft)
16.10.2022 22:45 14,3 C 11,7 C 92 % 1019,2 hPa 0,0 l/m 3,3 km/h (1 Bft) S-SO 156 0 min 0,0 UV-I 0 W/m 13,0 C 14,3 C 8,0 km/h (2 Bft)
16.10.2022 22:48 14,2 C 11,7 C 92 % 1019,2 hPa 0,0 l/m 3,7 km/h (1 Bft) SO 131 0 min 0,0 UV-I 0 W/m 12,9 C 14,2 C 6,4 km/h (2 Bft)
16.10.2022 22:51 14,2 C 11,7 C 92 % 1019,2 hPa 0,0 l/m 3,5 km/h (1 Bft) SO 130 0 min 0,0 UV-I 0 W/m 12,9 C 14,2 C 4,8 km/h (1 Bft)
16.10.2022 22:54 14,3 C 12,8 C 93 % 1019,2 hPa 0,0 l/m 4,9 km/h (1 Bft) SO 134 0 min 0,0 UV-I 0 W/m 13,2 C 14,3 C 11,3 km/h (2 Bft)
16.10.2022 22:57 14,4 C 12,8 C 92 % 1019,2 hPa 0,0 l/m 4,8 km/h (1 Bft) S 169 0 min 0,0 UV-I 0 W/m 13,1 C 14,4 C 12,9 km/h (3 Bft)
16.10.2022 23:00 14,4 C 12,8 C 92 % 1019,2 hPa 0,0 l/m 2,5 km/h (1 Bft) S-SO 148 0 min 0,0 UV-I 0 W/m 13,1 C 14,4 C 6,4 km/h (2 Bft)
16.10.2022 23:03 14,4 C 12,8 C 92 % 1019,2 hPa 0,0 l/m 5,5 km/h (1 Bft) O-SO 115 0 min 0,0 UV-I 0 W/m 13,1 C 14,4 C 11,3 km/h (2 Bft)
16.10.2022 23:06 14,4 C 12,8 C 92 % 1019,2 hPa 0,0 l/m 6,7 km/h (2 Bft) S 169 0 min 0,0 UV-I 0 W/m 13,1 C 14,2 C 12,9 km/h (3 Bft)
16.10.2022 23:09 14,4 C 12,8 C 92 % 1019,1 hPa 0,0 l/m 6,0 km/h (2 Bft) SO 130 0 min 0,0 UV-I 0 W/m 13,1 C 14,4 C 14,5 km/h (3 Bft)
16.10.2022 23:12 14,4 C 13,3 C 92 % 1019,2 hPa 0,0 l/m 7,3 km/h (2 Bft) SO 137 0 min 0,0 UV-I 0 W/m 13,1 C 13,9 C 12,9 km/h (3 Bft)
16.10.2022 23:15 14,4 C 13,3 C 92 % 1019,2 hPa 0,0 l/m 8,3 km/h (2 Bft) SO 130 0 min 0,0 UV-I 0 W/m 13,1 C 13,3 C 19,3 km/h (3 Bft)
16.10.2022 23:18 14,4 C 12,8 C 92 % 1019,2 hPa 0,0 l/m 6,4 km/h (2 Bft) SO 142 0 min 0,0 UV-I 0 W/m 13,1 C 14,4 C 11,3 km/h (2 Bft)
16.10.2022 23:21 14,4 C 13,3 C 92 % 1019,2 hPa 0,0 l/m 6,9 km/h (2 Bft) S-SO 168 0 min 0,0 UV-I 0 W/m 13,1 C 14,1 C 14,5 km/h (3 Bft)
16.10.2022 23:24 14,4 C 13,3 C 92 % 1019,2 hPa 0,0 l/m 7,4 km/h (2 Bft) SO 130 0 min 0,0 UV-I 0 W/m 13,1 C 13,8 C 14,5 km/h (3 Bft)
16.10.2022 23:27 14,4 C 13,3 C 92 % 1019,2 hPa 0,0 l/m 8,9 km/h (2 Bft) S-SO 167 0 min 0,0 UV-I 0 W/m 13,1 C 13,0 C 16,1 km/h (3 Bft)
16.10.2022 23:30 14,5 C 13,3 C 92 % 1019,2 hPa 0,0 l/m 8,0 km/h (2 Bft) SO 134 0 min 0,0 UV-I 0 W/m 13,2 C 13,6 C 12,9 km/h (3 Bft)
16.10.2022 23:33 14,6 C 13,3 C 92 % 1019,4 hPa 0,0 l/m 7,9 km/h (2 Bft) SO 146 0 min 0,0 UV-I 0 W/m 13,3 C 13,7 C 19,3 km/h (3 Bft)
16.10.2022 23:36 14,7 C 13,9 C 92 % 1019,3 hPa 0,0 l/m 8,9 km/h (2 Bft) S-SO 161 0 min 0,0 UV-I 0 W/m 13,4 C 13,3 C 16,1 km/h (3 Bft)
16.10.2022 23:39 14,7 C 13,3 C 92 % 1019,4 hPa 0,0 l/m 6,3 km/h (2 Bft) O-SO 119 0 min 0,0 UV-I 0 W/m 13,4 C 14,7 C 12,9 km/h (3 Bft)
16.10.2022 23:42 14,7 C 13,3 C 92 % 1019,3 hPa 0,0 l/m 7,8 km/h (2 Bft) S-SO 148 0 min 0,0 UV-I 0 W/m 13,4 C 13,9 C 14,5 km/h (3 Bft)
16.10.2022 23:45 14,7 C 13,3 C 91 % 1019,2 hPa 0,0 l/m 7,7 km/h (2 Bft) SO 133 0 min 0,0 UV-I 0 W/m 13,2 C 14,0 C 14,5 km/h (3 Bft)
16.10.2022 23:48 14,7 C 13,3 C 91 % 1019,2 hPa 0,0 l/m 6,7 km/h (2 Bft) S-SO 157 0 min 0,0 UV-I 0 W/m 13,2 C 14,5 C 12,9 km/h (3 Bft)
16.10.2022 23:51 14,7 C 13,3 C 91 % 1019,2 hPa 0,0 l/m 7,9 km/h (2 Bft) SO 130 0 min 0,0 UV-I 0 W/m 13,2 C 13,8 C 12,9 km/h (3 Bft)
16.10.2022 23:54 14,7 C 13,3 C 91 % 1019,2 hPa 0,0 l/m 6,3 km/h (2 Bft) S-SO 159 0 min 0,0 UV-I 0 W/m 13,2 C 14,7 C 12,9 km/h (3 Bft)
16.10.2022 23:57 14,7 C 13,3 C 91 % 1019,2 hPa 0,0 l/m 6,1 km/h (2 Bft) SO 131 0 min 0,0 UV-I 0 W/m 13,2 C 14,7 C 11,3 km/h (2 Bft)
_ Min-Zeit 02:18 02:15 12:42 00:00 - 20:39 - - - - - 03:18 03:27 22:36
Minimum _ 11,2 C 10,0 C 78 % 1012,9 hPa - 0,2 km/h (0 Bft) - - - - - 9,4 C 7,1 C 1,6 km/h (1 Bft)
_ Max-Zeit 15:03 11:51 22:54 23:33 00:00 06:15 - - 11:15 12:33 11:51 20:54 15:15 03:45
Maximum _ 15,8 C 23,3 C 93 % 1019,4 hPa 0,0 l/m 16,4 km/h
S (3 Bft)
- - 3 min 2,7 UV-I 643 W/m 13,7 C 15,7 C 29,0 km/h
S (5 Bft)
Durchschnitt _ 13,5 C 13,6 C 89 % 1016,5 hPa #0,0 l/m 8,6 km/h (2 Bft) S - #1:06 h 1,3 UV-I 167 W/m 11,6 C 12,0 C 15,0 km/h (3 Bft)